Time,TemperatureF,DewpointF,PressureIn,WindDirection,WindDirectionDegrees,WindSpeedMPH,WindSpeedGustMPH,Humidity,HourlyPrecipIn,Conditions,Clouds,dailyrainin,SoftwareType,DateUTC
2013-07-18 00:00:00,63.1,56.5,25.19,ESE,122,4.0,4.0,79,0.00,,---,0.00,VWS V14.01,2013-07-18 05:00:00,
2013-07-18 00:02:00,63.1,56.5,25.19,ESE,115,3.6,3.6,79,0.00,,---,0.00,VWS V14.01,2013-07-18 05:02:00,
2013-07-18 00:04:00,63.1,56.5,25.19,ESE,115,3.6,3.6,79,0.00,,---,0.00,VWS V14.01,2013-07-18 05:04:00,
2013-07-18 00:05:00,63.1,56.5,25.19,SE,130,3.6,4.0,79,0.00,,---,0.00,VWS V14.01,2013-07-18 05:05:00,
2013-07-18 00:07:00,63.0,56.3,25.19,SE,143,4.0,4.0,79,0.00,,---,0.00,VWS V14.01,2013-07-18 05:07:00,
2013-07-18 00:09:00,63.0,56.3,25.19,ESE,123,4.9,4.9,79,0.00,,---,0.00,VWS V14.01,2013-07-18 05:09:00,
2013-07-18 00:10:00,63.0,56.3,25.19,ESE,123,4.9,4.9,79,0.00,,---,0.00,VWS V14.01,2013-07-18 05:10:00,
2013-07-18 00:11:00,63.0,56.3,25.19,ESE,123,4.9,4.9,79,0.00,,---,0.00,VWS V14.01,2013-07-18 05:11:00,
2013-07-18 00:12:00,63.0,56.3,25.19,SE,129,3.6,4.9,79,0.00,,---,0.00,VWS V14.01,2013-07-18 05:12:00,
2013-07-18 00:15:00,63.0,56.7,25.19,SSE,151,3.6,3.6,80,0.00,,---,0.00,VWS V14.01,2013-07-18 05:15:00,
2013-07-18 00:16:00,63.0,56.7,25.19,ESE,120,4.0,4.0,80,0.00,,---,0.00,VWS V14.01,2013-07-18 05:16:00,
2013-07-18 00:17:00,62.8,56.5,25.19,ESE,120,4.0,4.0,80,0.00,,---,0.00,VWS V14.01,2013-07-18 05:17:00,
2013-07-18 00:20:00,62.8,56.5,25.19,SE,133,2.7,2.7,80,0.00,,---,0.00,VWS V14.01,2013-07-18 05:20:00,
2013-07-18 00:21:00,62.8,56.5,25.19,SSE,148,2.7,2.7,80,0.00,,---,0.00,VWS V14.01,2013-07-18 05:21:00,
2013-07-18 00:22:00,62.8,56.5,25.19,SSE,148,2.7,2.7,80,0.00,,---,0.00,VWS V14.01,2013-07-18 05:22:00,
2013-07-18 00:25:00,62.8,56.5,25.19,ESE,118,3.1,5.4,80,0.00,,---,0.00,VWS V14.01,2013-07-18 05:25:00,
2013-07-18 00:26:00,62.8,56.9,25.19,ESE,118,3.1,5.4,81,0.00,,---,0.00,VWS V14.01,2013-07-18 05:26:00,
2013-07-18 00:27:00,62.8,56.9,25.19,ESE,118,3.1,3.1,81,0.00,,---,0.00,VWS V14.01,2013-07-18 05:27:00,
2013-07-18 00:30:00,62.8,56.9,25.19,SE,129,5.4,5.4,81,0.00,,---,0.00,VWS V14.01,2013-07-18 05:30:00,
2013-07-18 00:31:00,62.8,56.9,25.19,SE,132,3.6,5.4,81,0.00,,---,0.00,VWS V14.01,2013-07-18 05:31:00,
2013-07-18 00:32:00,63.0,57.0,25.19,SE,132,3.6,3.6,81,0.00,,---,0.00,VWS V14.01,2013-07-18 05:32:00,
2013-07-18 00:35:00,63.0,57.0,25.19,SE,141,4.0,4.0,81,0.00,,---,0.00,VWS V14.01,2013-07-18 05:35:00,
2013-07-18 00:36:00,63.0,57.0,25.19,SE,142,3.6,3.6,81,0.00,,---,0.00,VWS V14.01,2013-07-18 05:36:00,
2013-07-18 00:37:00,63.0,57.0,25.19,SE,142,3.6,3.6,81,0.00,,---,0.00,VWS V14.01,2013-07-18 05:37:00,
2013-07-18 00:41:00,63.0,57.0,25.19,SE,139,3.1,3.1,81,0.00,,---,0.00,VWS V14.01,2013-07-18 05:41:00,
2013-07-18 00:42:00,63.0,57.0,25.19,ESE,123,4.0,4.9,81,0.00,,---,0.00,VWS V14.01,2013-07-18 05:42:00,
2013-07-18 00:46:00,63.0,56.3,25.19,ESE,123,4.0,4.0,79,0.00,,---,0.00,VWS V14.01,2013-07-18 05:46:00,
2013-07-18 00:47:00,63.0,56.3,25.19,SE,139,4.9,4.9,79,0.00,,---,0.00,VWS V14.01,2013-07-18 05:47:00,
2013-07-18 00:48:00,63.0,56.3,25.19,SE,139,4.9,4.9,79,0.00,,---,0.00,VWS V14.01,2013-07-18 05:48:00,
2013-07-18 00:51:00,63.0,56.3,25.16,SE,135,3.1,3.1,79,0.00,,---,0.00,VWS V14.01,2013-07-18 05:51:00,
2013-07-18 00:52:00,63.0,56.0,25.16,SE,135,3.1,3.1,78,0.00,,---,0.00,VWS V14.01,2013-07-18 05:52:00,
2013-07-18 00:53:00,63.0,56.0,25.16,SSE,150,2.7,3.1,78,0.00,,---,0.00,VWS V14.01,2013-07-18 05:53:00,
2013-07-18 00:56:00,63.0,56.0,25.16,SSE,158,0.0,0.0,78,0.00,,---,0.00,VWS V14.01,2013-07-18 05:56:00,
2013-07-18 00:57:00,63.0,56.0,25.16,SSE,158,0.0,0.0,78,0.00,,---,0.00,VWS V14.01,2013-07-18 05:57:00,
2013-07-18 00:58:00,63.0,56.0,25.16,SSE,158,0.0,0.0,78,0.00,,---,0.00,VWS V14.01,2013-07-18 05:58:00,
2013-07-18 01:01:00,63.0,56.0,25.16,ESE,112,3.6,3.6,78,0.00,,---,0.00,VWS V14.01,2013-07-18 06:01:00,
2013-07-18 01:03:00,63.0,56.0,25.16,SE,143,2.7,3.6,78,0.00,,---,0.00,VWS V14.01,2013-07-18 06:03:00,
2013-07-18 01:04:00,63.0,56.0,25.16,SE,143,2.7,2.7,78,0.00,,---,0.00,VWS V14.01,2013-07-18 06:04:00,
2013-07-18 01:06:00,63.0,56.0,25.16,SSE,150,2.2,2.7,78,0.00,,---,0.00,VWS V14.01,2013-07-18 06:06:00,
2013-07-18 01:08:00,63.0,56.7,25.19,SSE,150,0.0,0.0,80,0.00,,---,0.00,VWS V14.01,2013-07-18 06:08:00,
2013-07-18 01:09:00,63.0,56.7,25.19,SSE,150,0.0,0.0,80,0.00,,---,0.00,VWS V14.01,2013-07-18 06:09:00,
2013-07-18 01:12:00,63.0,56.7,25.19,SSE,150,0.0,0.0,80,0.00,,---,0.00,VWS V14.01,2013-07-18 06:12:00,
2013-07-18 01:13:00,63.0,56.7,25.19,SSE,150,0.0,0.0,80,0.00,,---,0.00,VWS V14.01,2013-07-18 06:13:00,
2013-07-18 01:14:00,63.0,56.7,25.19,SSE,150,0.0,0.0,80,0.00,,---,0.00,VWS V14.01,2013-07-18 06:14:00,
2013-07-18 01:17:00,63.0,57.0,25.19,SE,136,4.0,4.0,81,0.00,,---,0.00,VWS V14.01,2013-07-18 06:17:00,
2013-07-18 01:18:00,63.0,57.0,25.19,SE,136,4.0,4.0,81,0.00,,---,0.00,VWS V14.01,2013-07-18 06:18:00,
2013-07-18 01:19:00,63.0,57.0,25.19,SE,136,4.0,4.0,81,0.00,,---,0.00,VWS V14.01,2013-07-18 06:19:00,
2013-07-18 01:22:00,63.0,57.0,25.19,SE,130,3.6,3.6,81,0.00,,---,0.00,VWS V14.01,2013-07-18 06:22:00,
2013-07-18 01:24:00,63.0,57.0,25.19,SE,130,3.6,3.6,81,0.00,,---,0.00,VWS V14.01,2013-07-18 06:24:00,
2013-07-18 01:28:00,63.0,57.0,25.19,ESE,113,3.1,3.1,81,0.00,,---,0.00,VWS V14.01,2013-07-18 06:28:00,
2013-07-18 01:29:00,63.0,57.0,25.19,ESE,115,4.5,4.5,81,0.00,,---,0.00,VWS V14.01,2013-07-18 06:29:00,
2013-07-18 01:30:00,63.0,57.0,25.19,ESE,115,4.5,4.5,81,0.00,,---,0.00,VWS V14.01,2013-07-18 06:30:00,
2013-07-18 01:33:00,63.0,57.0,25.19,East,86,3.1,3.1,81,0.00,,---,0.00,VWS V14.01,2013-07-18 06:33:00,
2013-07-18 01:34:00,63.0,57.0,25.19,East,86,3.1,3.1,81,0.00,,---,0.00,VWS V14.01,2013-07-18 06:34:00,
2013-07-18 01:35:00,63.0,56.7,25.19,East,86,3.1,3.1,80,0.00,,---,0.00,VWS V14.01,2013-07-18 06:35:00,
2013-07-18 01:39:00,63.0,56.7,25.19,SSE,163,5.8,5.8,80,0.00,,---,0.00,VWS V14.01,2013-07-18 06:39:00,
2013-07-18 01:40:00,63.0,56.7,25.19,ESE,117,2.7,5.8,80,0.00,,---,0.00,VWS V14.01,2013-07-18 06:40:00,
2013-07-18 01:44:00,63.0,56.7,25.19,SE,125,5.4,5.4,80,0.00,,---,0.00,VWS V14.01,2013-07-18 06:44:00,
2013-07-18 01:45:00,63.0,56.7,25.19,SE,125,5.4,5.4,80,0.00,,---,0.00,VWS V14.01,2013-07-18 06:45:00,
2013-07-18 01:49:00,63.0,56.7,25.19,ESE,116,5.8,5.8,80,0.00,,---,0.00,VWS V14.01,2013-07-18 06:49:00,
2013-07-18 01:50:00,63.0,56.7,25.19,ESE,116,5.8,5.8,80,0.00,,---,0.00,VWS V14.01,2013-07-18 06:50:00,
2013-07-18 01:51:00,63.0,56.7,25.19,SE,124,5.8,5.8,80,0.00,,---,0.00,VWS V14.01,2013-07-18 06:51:00,
2013-07-18 01:54:00,63.0,56.7,25.19,SE,124,5.8,5.8,80,0.00,,---,0.00,VWS V14.01,2013-07-18 06:54:00,
2013-07-18 01:55:00,63.0,56.7,25.19,SE,124,5.8,5.8,80,0.00,,---,0.00,VWS V14.01,2013-07-18 06:55:00,
2013-07-18 01:56:00,63.0,56.7,25.19,ESE,105,5.8,5.8,80,0.00,,---,0.00,VWS V14.01,2013-07-18 06:56:00,
2013-07-18 02:00:00,63.0,56.7,25.19,ESE,107,3.1,5.8,80,0.00,,---,0.00,VWS V14.01,2013-07-18 07:00:00,
2013-07-18 02:01:00,62.8,56.2,25.19,ESE,107,3.1,3.1,79,0.00,,---,0.00,VWS V14.01,2013-07-18 07:01:00,
2013-07-18 02:05:00,62.8,56.2,25.19,East,97,3.1,3.1,79,0.00,,---,0.00,VWS V14.01,2013-07-18 07:05:00,
2013-07-18 02:06:00,62.8,56.2,25.19,East,97,3.1,3.1,79,0.00,,---,0.00,VWS V14.01,2013-07-18 07:06:00,
2013-07-18 02:10:00,62.8,56.2,25.19,ESE,119,3.1,4.9,79,0.00,,---,0.00,VWS V14.01,2013-07-18 07:10:00,
2013-07-18 02:11:00,62.8,56.2,25.19,ESE,119,3.1,3.1,79,0.00,,---,0.00,VWS V14.01,2013-07-18 07:11:00,
2013-07-18 02:12:00,62.8,56.2,25.19,SSE,158,3.6,3.6,79,0.00,,---,0.00,VWS V14.01,2013-07-18 07:12:00,
2013-07-18 02:15:00,62.8,56.2,25.19,SSE,157,2.7,2.7,79,0.00,,---,0.00,VWS V14.01,2013-07-18 07:15:00,
2013-07-18 02:16:00,62.8,56.2,25.19,SE,137,4.0,4.0,79,0.00,,---,0.00,VWS V14.01,2013-07-18 07:16:00,
2013-07-18 02:17:00,62.8,56.2,25.19,SE,137,4.0,4.0,79,0.00,,---,0.00,VWS V14.01,2013-07-18 07:17:00,
2013-07-18 02:18:00,62.8,56.2,25.19,ESE,110,5.4,5.4,79,0.00,,---,0.00,VWS V14.01,2013-07-18 07:18:00,
2013-07-18 02:21:00,62.8,56.2,25.19,East,101,5.4,5.4,79,0.00,,---,0.00,VWS V14.01,2013-07-18 07:21:00,
2013-07-18 02:22:00,62.8,55.8,25.19,ESE,113,4.0,5.4,78,0.00,,---,0.00,VWS V14.01,2013-07-18 07:22:00,
2013-07-18 02:23:00,62.8,55.8,25.19,ESE,120,3.6,5.4,78,0.00,,---,0.00,VWS V14.01,2013-07-18 07:23:00,
2013-07-18 02:26:00,62.8,55.8,25.16,ESE,120,3.6,3.6,78,0.00,,---,0.00,VWS V14.01,2013-07-18 07:26:00,
2013-07-18 02:27:00,62.6,55.7,25.16,ESE,120,3.6,3.6,78,0.00,,---,0.00,VWS V14.01,2013-07-18 07:27:00,
2013-07-18 02:28:00,62.6,55.7,25.16,ESE,120,3.6,3.6,78,0.00,,---,0.00,VWS V14.01,2013-07-18 07:28:00,
2013-07-18 02:31:00,62.6,55.7,25.16,ESE,103,2.7,3.6,78,0.00,,---,0.00,VWS V14.01,2013-07-18 07:31:00,
2013-07-18 02:32:00,62.6,55.7,25.16,ESE,110,3.6,3.6,78,0.00,,---,0.00,VWS V14.01,2013-07-18 07:32:00,
2013-07-18 02:33:00,62.6,55.7,25.16,ESE,119,2.7,3.6,78,0.00,,---,0.00,VWS V14.01,2013-07-18 07:33:00,
2013-07-18 02:37:00,62.6,55.3,25.16,ESE,119,2.7,2.7,77,0.00,,---,0.00,VWS V14.01,2013-07-18 07:37:00,
2013-07-18 02:38:00,62.6,55.3,25.16,ESE,119,2.7,2.7,77,0.00,,---,0.00,VWS V14.01,2013-07-18 07:38:00,
2013-07-18 02:39:00,62.6,55.3,25.16,ESE,114,3.6,3.6,77,0.00,,---,0.00,VWS V14.01,2013-07-18 07:39:00,
2013-07-18 02:42:00,62.6,55.3,25.16,SE,129,3.1,3.1,77,0.00,,---,0.00,VWS V14.01,2013-07-18 07:42:00,
2013-07-18 02:43:00,62.6,55.3,25.16,SE,129,3.1,3.1,77,0.00,,---,0.00,VWS V14.01,2013-07-18 07:43:00,
2013-07-18 02:44:00,62.6,55.3,25.16,SE,129,3.1,3.1,77,0.00,,---,0.00,VWS V14.01,2013-07-18 07:44:00,
2013-07-18 02:47:00,62.6,55.3,25.16,SE,129,2.7,2.7,77,0.00,,---,0.00,VWS V14.01,2013-07-18 07:47:00,
2013-07-18 02:48:00,62.6,55.3,25.16,SE,129,2.7,2.7,77,0.00,,---,0.00,VWS V14.01,2013-07-18 07:48:00,
2013-07-18 02:49:00,62.6,56.0,25.16,SE,131,0.0,2.7,79,0.00,,---,0.00,VWS V14.01,2013-07-18 07:49:00,
2013-07-18 02:50:00,62.6,56.0,25.16,SE,131,0.0,0.0,79,0.00,,---,0.00,VWS V14.01,2013-07-18 07:50:00,
2013-07-18 02:53:00,62.6,56.0,25.16,ESE,103,3.1,3.1,79,0.00,,---,0.00,VWS V14.01,2013-07-18 07:53:00,
2013-07-18 02:55:00,62.6,56.0,25.16,ESE,103,2.7,2.7,79,0.00,,---,0.00,VWS V14.01,2013-07-18 07:55:00,
2013-07-18 02:58:00,62.6,56.0,25.16,ESE,103,2.7,2.7,79,0.00,,---,0.00,VWS V14.01,2013-07-18 07:58:00,
2013-07-18 03:00:00,62.6,56.0,25.16,East,86,3.6,3.6,79,0.00,,---,0.00,VWS V14.01,2013-07-18 08:00:00,
2013-07-18 03:03:00,62.6,56.0,25.16,ESE,123,3.6,3.6,79,0.00,,---,0.00,VWS V14.01,2013-07-18 08:03:00,
2013-07-18 03:04:00,62.6,56.0,25.16,ESE,110,4.9,4.9,79,0.00,,---,0.00,VWS V14.01,2013-07-18 08:04:00,
2013-07-18 03:05:00,62.6,56.0,25.16,ESE,110,4.9,4.9,79,0.00,,---,0.00,VWS V14.01,2013-07-18 08:05:00,
2013-07-18 03:06:00,62.6,56.0,25.16,ESE,111,3.1,4.9,79,0.00,,---,0.00,VWS V14.01,2013-07-18 08:06:00,
2013-07-18 03:08:00,62.6,56.0,25.16,ESE,119,3.6,3.6,79,0.00,,---,0.00,VWS V14.01,2013-07-18 08:08:00,
2013-07-18 03:10:00,62.6,56.0,25.16,ESE,119,3.6,3.6,79,0.00,,---,0.00,VWS V14.01,2013-07-18 08:10:00,
2013-07-18 03:11:00,62.6,56.0,25.16,ESE,119,3.6,3.6,79,0.00,,---,0.00,VWS V14.01,2013-07-18 08:11:00,
2013-07-18 03:13:00,62.6,55.7,25.16,ESE,112,5.8,5.8,78,0.00,,---,0.00,VWS V14.01,2013-07-18 08:13:00,
2013-07-18 03:15:00,62.6,55.7,25.16,SE,129,4.0,5.8,78,0.00,,---,0.00,VWS V14.01,2013-07-18 08:15:00,
2013-07-18 03:16:00,62.6,55.7,25.16,East,100,5.4,5.4,78,0.00,,---,0.00,VWS V14.01,2013-07-18 08:16:00,
2013-07-18 03:18:00,62.4,55.1,25.16,ESE,120,3.6,3.6,77,0.00,,---,0.00,VWS V14.01,2013-07-18 08:18:00,
2013-07-18 03:19:00,62.4,55.1,25.16,ESE,120,3.6,3.6,77,0.00,,---,0.00,VWS V14.01,2013-07-18 08:19:00,
2013-07-18 03:20:00,62.4,55.1,25.13,ESE,114,4.0,4.0,77,0.00,,---,0.00,VWS V14.01,2013-07-18 08:20:00,
2013-07-18 03:21:00,62.4,55.1,25.13,ESE,114,4.0,4.0,77,0.00,,---,0.00,VWS V14.01,2013-07-18 08:21:00,
2013-07-18 03:24:00,62.4,55.1,25.13,ESE,114,4.0,4.0,77,0.00,,---,0.00,VWS V14.01,2013-07-18 08:24:00,
2013-07-18 03:26:00,62.4,55.1,25.13,SE,141,0.0,4.0,77,0.00,,---,0.00,VWS V14.01,2013-07-18 08:26:00,
2013-07-18 03:29:00,62.2,55.7,25.13,SSE,153,0.0,0.0,79,0.00,,---,0.00,VWS V14.01,2013-07-18 08:29:00,
2013-07-18 03:31:00,62.2,55.7,25.13,ESE,107,2.7,2.7,79,0.00,,---,0.00,VWS V14.01,2013-07-18 08:31:00,
2013-07-18 03:32:00,62.2,55.7,25.13,ESE,107,2.7,2.7,79,0.00,,---,0.00,VWS V14.01,2013-07-18 08:32:00,
2013-07-18 03:33:00,62.2,55.7,25.13,ESE,107,2.7,2.7,79,0.00,,---,0.00,VWS V14.01,2013-07-18 08:33:00,
2013-07-18 03:34:00,62.2,55.7,25.13,SSE,154,0.0,2.7,79,0.00,,---,0.00,VWS V14.01,2013-07-18 08:34:00,
2013-07-18 03:35:00,62.2,55.7,25.13,SSE,154,0.0,0.0,79,0.00,,---,0.00,VWS V14.01,2013-07-18 08:35:00,
2013-07-18 03:37:00,62.2,56.3,25.13,SE,136,0.0,0.0,81,0.00,,---,0.00,VWS V14.01,2013-07-18 08:37:00,
2013-07-18 03:38:00,62.2,56.3,25.13,SE,136,0.0,0.0,81,0.00,,---,0.00,VWS V14.01,2013-07-18 08:38:00,
2013-07-18 03:39:00,62.2,56.3,25.13,SE,136,0.0,0.0,81,0.00,,---,0.00,VWS V14.01,2013-07-18 08:39:00,
2013-07-18 03:40:00,62.2,56.3,25.13,SE,134,2.7,4.0,81,0.00,,---,0.00,VWS V14.01,2013-07-18 08:40:00,
2013-07-18 03:42:00,62.2,56.3,25.13,SE,134,0.0,2.2,81,0.00,,---,0.00,VWS V14.01,2013-07-18 08:42:00,
2013-07-18 03:44:00,62.2,56.3,25.13,SE,134,0.0,0.0,81,0.00,,---,0.00,VWS V14.01,2013-07-18 08:44:00,
2013-07-18 03:45:00,62.2,57.0,25.13,SE,134,0.0,0.0,83,0.00,,---,0.00,VWS V14.01,2013-07-18 08:45:00,
2013-07-18 03:47:00,62.2,57.0,25.13,SE,134,0.0,0.0,83,0.00,,---,0.00,VWS V14.01,2013-07-18 08:47:00,
2013-07-18 03:48:00,62.2,57.0,25.13,SE,134,0.0,0.0,83,0.00,,---,0.00,VWS V14.01,2013-07-18 08:48:00,
2013-07-18 03:49:00,62.2,57.0,25.13,SE,143,2.2,2.2,83,0.00,,---,0.00,VWS V14.01,2013-07-18 08:49:00,
2013-07-18 03:50:00,62.2,57.0,25.13,SE,143,2.2,2.2,83,0.00,,---,0.00,VWS V14.01,2013-07-18 08:50:00,
2013-07-18 03:53:00,62.2,57.7,25.13,SE,144,2.7,2.7,85,0.00,,---,0.00,VWS V14.01,2013-07-18 08:53:00,
2013-07-18 03:54:00,62.2,57.7,25.13,SE,144,2.7,2.7,85,0.00,,---,0.00,VWS V14.01,2013-07-18 08:54:00,
2013-07-18 03:56:00,62.2,57.7,25.13,SSE,159,0.0,2.7,85,0.00,,---,0.00,VWS V14.01,2013-07-18 08:56:00,
2013-07-18 03:58:00,62.2,57.7,25.13,SSE,159,0.0,0.0,85,0.00,,---,0.00,VWS V14.01,2013-07-18 08:58:00,
2013-07-18 03:59:00,62.2,58.0,25.13,SSE,159,0.0,0.0,86,0.00,,---,0.00,VWS V14.01,2013-07-18 08:59:00,
2013-07-18 04:01:00,62.2,58.0,25.16,SSE,153,4.9,4.9,86,0.00,,---,0.00,VWS V14.01,2013-07-18 09:01:00,
2013-07-18 04:03:00,62.2,58.0,25.16,SSE,153,4.9,4.9,86,0.00,,---,0.00,VWS V14.01,2013-07-18 09:03:00,
2013-07-18 04:05:00,62.2,58.0,25.16,SSE,153,4.9,4.9,86,0.00,,---,0.00,VWS V14.01,2013-07-18 09:05:00,
2013-07-18 04:06:00,62.2,58.0,25.16,SSE,153,4.9,4.9,86,0.00,,---,0.00,VWS V14.01,2013-07-18 09:06:00,
2013-07-18 04:08:00,62.2,58.0,25.16,South,171,3.6,4.5,86,0.00,,---,0.00,VWS V14.01,2013-07-18 09:08:00,
2013-07-18 04:10:00,62.2,57.7,25.16,SSE,154,4.0,5.4,85,0.00,,---,0.00,VWS V14.01,2013-07-18 09:10:00,
2013-07-18 04:11:00,62.2,57.7,25.16,SSE,154,4.0,4.0,85,0.00,,---,0.00,VWS V14.01,2013-07-18 09:11:00,
2013-07-18 04:12:00,62.2,57.7,25.16,SSE,154,4.0,4.0,85,0.00,,---,0.00,VWS V14.01,2013-07-18 09:12:00,
2013-07-18 04:13:00,62.2,57.3,25.16,SE,144,3.6,3.6,84,0.00,,---,0.00,VWS V14.01,2013-07-18 09:13:00,
2013-07-18 04:14:00,62.2,57.3,25.16,SE,144,3.6,3.6,84,0.00,,---,0.00,VWS V14.01,2013-07-18 09:14:00,
2013-07-18 04:16:00,62.2,57.3,25.16,SSE,154,3.6,3.6,84,0.00,,---,0.00,VWS V14.01,2013-07-18 09:16:00,
2013-07-18 04:17:00,62.2,57.3,25.16,SSE,154,3.1,3.1,84,0.00,,---,0.00,VWS V14.01,2013-07-18 09:17:00,
2013-07-18 04:19:00,62.2,57.3,25.16,SSE,154,3.1,3.1,84,0.00,,---,0.00,VWS V14.01,2013-07-18 09:19:00,
2013-07-18 04:21:00,62.2,57.3,25.16,SSE,154,3.1,3.1,84,0.00,,---,0.00,VWS V14.01,2013-07-18 09:21:00,
2013-07-18 04:22:00,62.2,57.3,25.16,SSE,154,3.1,3.1,84,0.00,,---,0.00,VWS V14.01,2013-07-18 09:22:00,
2013-07-18 04:24:00,62.2,57.3,25.16,SSE,153,3.6,3.6,84,0.00,,---,0.00,VWS V14.01,2013-07-18 09:24:00,
2013-07-18 04:27:00,62.2,57.3,25.16,SSE,148,4.0,4.0,84,0.00,,---,0.00,VWS V14.01,2013-07-18 09:27:00,
2013-07-18 04:29:00,62.2,57.7,25.16,SE,140,3.6,4.0,85,0.00,,---,0.00,VWS V14.01,2013-07-18 09:29:00,
2013-07-18 04:31:00,62.2,57.7,25.16,SE,144,2.7,3.6,85,0.00,,---,0.00,VWS V14.01,2013-07-18 09:31:00,
2013-07-18 04:32:00,62.2,57.7,25.16,SE,144,2.7,2.7,85,0.00,,---,0.00,VWS V14.01,2013-07-18 09:32:00,
2013-07-18 04:33:00,62.2,57.7,25.16,SE,130,4.0,4.0,85,0.00,,---,0.00,VWS V14.01,2013-07-18 09:33:00,
2013-07-18 04:34:00,62.2,57.7,25.16,SE,130,2.7,4.0,85,0.00,,---,0.00,VWS V14.01,2013-07-18 09:34:00,
2013-07-18 04:36:00,62.2,57.3,25.16,SE,130,2.7,2.7,84,0.00,,---,0.00,VWS V14.01,2013-07-18 09:36:00,
2013-07-18 04:37:00,62.2,57.3,25.16,ESE,106,4.0,4.0,84,0.00,,---,0.00,VWS V14.01,2013-07-18 09:37:00,
2013-07-18 04:38:00,62.2,57.3,25.16,ESE,106,4.0,4.0,84,0.00,,---,0.00,VWS V14.01,2013-07-18 09:38:00,
2013-07-18 04:39:00,62.2,57.3,25.16,ESE,106,4.0,4.0,84,0.00,,---,0.00,VWS V14.01,2013-07-18 09:39:00,
2013-07-18 04:41:00,62.2,57.3,25.16,ESE,106,4.0,4.0,84,0.00,,---,0.00,VWS V14.01,2013-07-18 09:41:00,
2013-07-18 04:42:00,62.2,57.0,25.16,SE,135,3.6,4.0,83,0.00,,---,0.00,VWS V14.01,2013-07-18 09:42:00,
2013-07-18 04:43:00,62.2,57.0,25.16,SE,139,4.0,4.0,83,0.00,,---,0.00,VWS V14.01,2013-07-18 09:43:00,
2013-07-18 04:44:00,62.2,57.0,25.16,SE,133,3.6,4.9,83,0.00,,---,0.00,VWS V14.01,2013-07-18 09:44:00,
2013-07-18 04:46:00,62.2,57.0,25.16,SSE,154,4.0,4.0,83,0.00,,---,0.00,VWS V14.01,2013-07-18 09:46:00,
2013-07-18 04:48:00,62.2,57.0,25.16,SSE,154,4.0,4.0,83,0.00,,---,0.00,VWS V14.01,2013-07-18 09:48:00,
2013-07-18 04:50:00,62.2,57.0,25.16,SSE,154,4.0,4.0,83,0.00,,---,0.00,VWS V14.01,2013-07-18 09:50:00,
2013-07-18 04:51:00,62.2,57.0,25.16,SE,134,4.0,4.0,83,0.00,,---,0.00,VWS V14.01,2013-07-18 09:51:00,
2013-07-18 04:53:00,62.2,57.0,25.16,SE,141,3.6,3.6,83,0.00,,---,0.00,VWS V14.01,2013-07-18 09:53:00,
2013-07-18 04:55:00,62.2,57.0,25.16,SE,141,3.6,3.6,83,0.00,,---,0.00,VWS V14.01,2013-07-18 09:55:00,
2013-07-18 04:56:00,62.2,56.7,25.16,SE,140,4.0,4.0,82,0.00,,---,0.00,VWS V14.01,2013-07-18 09:56:00,
2013-07-18 04:58:00,62.2,56.7,25.16,SE,135,4.9,5.8,82,0.00,,---,0.00,VWS V14.01,2013-07-18 09:58:00,
2013-07-18 04:59:00,62.2,56.7,25.16,SE,135,4.9,4.9,82,0.00,,---,0.00,VWS V14.01,2013-07-18 09:59:00,
2013-07-18 05:00:00,62.2,56.7,25.16,SSE,150,5.4,5.4,82,0.00,,---,0.00,VWS V14.01,2013-07-18 10:00:00,
2013-07-18 05:01:00,62.2,56.7,25.16,SE,142,5.4,5.4,82,0.00,,---,0.00,VWS V14.01,2013-07-18 10:01:00,
2013-07-18 05:02:00,62.2,56.7,25.16,SE,142,5.4,5.4,82,0.00,,---,0.00,VWS V14.01,2013-07-18 10:02:00,
2013-07-18 05:04:00,62.2,56.7,25.16,SE,142,5.4,5.4,82,0.00,,---,0.00,VWS V14.01,2013-07-18 10:04:00,
2013-07-18 05:05:00,62.2,56.7,25.16,SE,131,4.9,4.9,82,0.00,,---,0.00,VWS V14.01,2013-07-18 10:05:00,
2013-07-18 05:06:00,62.2,56.7,25.16,SE,145,4.0,4.0,82,0.00,,---,0.00,VWS V14.01,2013-07-18 10:06:00,
2013-07-18 05:07:00,62.2,56.7,25.16,SE,142,2.7,2.7,82,0.00,,---,0.00,VWS V14.01,2013-07-18 10:07:00,
2013-07-18 05:09:00,62.2,56.7,25.16,SE,134,3.1,4.0,82,0.00,,---,0.00,VWS V14.01,2013-07-18 10:09:00,
2013-07-18 05:11:00,62.4,56.9,25.16,SE,134,3.1,3.1,82,0.00,,---,0.00,VWS V14.01,2013-07-18 10:11:00,
2013-07-18 05:12:00,62.4,56.9,25.16,SE,134,3.1,3.1,82,0.00,,---,0.00,VWS V14.01,2013-07-18 10:12:00,
2013-07-18 05:14:00,62.4,56.9,25.16,SSE,148,5.4,5.4,82,0.00,,---,0.00,VWS V14.01,2013-07-18 10:14:00,
2013-07-18 05:16:00,62.4,56.9,25.16,SE,141,2.7,5.4,82,0.00,,---,0.00,VWS V14.01,2013-07-18 10:16:00,
2013-07-18 05:17:00,62.4,56.9,25.16,SE,141,2.7,5.4,82,0.00,,---,0.00,VWS V14.01,2013-07-18 10:17:00,
2013-07-18 05:19:00,62.2,56.7,25.16,SSE,157,4.0,6.3,82,0.00,,---,0.00,VWS V14.01,2013-07-18 10:19:00,
2013-07-18 05:21:00,62.2,56.7,25.16,SSE,147,3.1,3.1,82,0.00,,---,0.00,VWS V14.01,2013-07-18 10:21:00,
2013-07-18 05:22:00,62.2,56.7,25.16,SE,137,6.3,6.3,82,0.00,,---,0.00,VWS V14.01,2013-07-18 10:22:00,
2013-07-18 05:23:00,62.2,56.7,25.16,SE,137,6.3,6.3,82,0.00,,---,0.00,VWS V14.01,2013-07-18 10:23:00,
2013-07-18 05:24:00,62.2,56.7,25.16,SE,133,5.8,6.3,82,0.00,,---,0.00,VWS V14.01,2013-07-18 10:24:00,
2013-07-18 05:26:00,62.2,56.7,25.16,SE,139,3.6,5.8,82,0.00,,---,0.00,VWS V14.01,2013-07-18 10:26:00,
2013-07-18 05:27:00,62.4,56.9,25.16,SE,131,5.4,5.4,82,0.00,,---,0.00,VWS V14.01,2013-07-18 10:27:00,
2013-07-18 05:28:00,62.4,56.9,25.16,SE,131,5.4,5.4,82,0.00,,---,0.00,VWS V14.01,2013-07-18 10:28:00,
2013-07-18 05:30:00,62.4,56.9,25.16,SE,131,5.4,5.4,82,0.00,,---,0.00,VWS V14.01,2013-07-18 10:30:00,
2013-07-18 05:31:00,62.4,56.9,25.16,SE,143,4.0,4.0,82,0.00,,---,0.00,VWS V14.01,2013-07-18 10:31:00,
2013-07-18 05:32:00,62.4,56.9,25.16,SE,143,4.0,4.0,82,0.00,,---,0.00,VWS V14.01,2013-07-18 10:32:00,
2013-07-18 05:33:00,62.4,56.5,25.16,SSE,154,3.1,5.4,81,0.00,,---,0.00,VWS V14.01,2013-07-18 10:33:00,
2013-07-18 05:35:00,62.4,56.5,25.16,SE,144,5.4,5.4,81,0.00,,---,0.00,VWS V14.01,2013-07-18 10:35:00,
2013-07-18 05:36:00,62.4,56.5,25.16,South,169,5.8,5.8,81,0.00,,---,0.00,VWS V14.01,2013-07-18 10:36:00,
2013-07-18 05:37:00,62.4,56.5,25.16,South,169,5.8,5.8,81,0.00,,---,0.00,VWS V14.01,2013-07-18 10:37:00,
2013-07-18 05:38:00,62.4,56.5,25.16,SSE,153,8.1,8.1,81,0.00,,---,0.00,VWS V14.01,2013-07-18 10:38:00,
2013-07-18 05:40:00,62.4,56.5,25.16,SE,137,5.4,5.4,81,0.00,,---,0.00,VWS V14.01,2013-07-18 10:40:00,
2013-07-18 05:41:00,62.4,56.5,25.16,SE,138,4.0,4.0,81,0.00,,---,0.00,VWS V14.01,2013-07-18 10:41:00,
2013-07-18 05:42:00,62.4,56.5,25.16,SE,138,4.0,4.0,81,0.00,,---,0.00,VWS V14.01,2013-07-18 10:42:00,
2013-07-18 05:44:00,62.4,56.5,25.16,SE,137,3.6,4.0,81,0.00,,---,0.00,VWS V14.01,2013-07-18 10:44:00,
2013-07-18 05:45:00,62.4,56.9,25.16,SSE,150,2.7,2.7,82,0.00,,---,0.00,VWS V14.01,2013-07-18 10:45:00,
2013-07-18 05:46:00,62.4,56.9,25.16,SSE,152,3.1,3.1,82,0.00,,---,0.00,VWS V14.01,2013-07-18 10:46:00,
2013-07-18 05:47:00,62.4,56.9,25.16,SE,139,4.0,4.0,82,0.00,,---,0.00,VWS V14.01,2013-07-18 10:47:00,
2013-07-18 05:49:00,62.4,56.9,25.16,SE,136,4.0,5.8,82,0.00,,---,0.00,VWS V14.01,2013-07-18 10:49:00,
2013-07-18 05:50:00,62.4,56.9,25.16,SSE,147,3.6,5.4,82,0.00,,---,0.00,VWS V14.01,2013-07-18 10:50:00,
2013-07-18 05:51:00,62.4,56.9,25.13,SSE,161,5.4,5.4,82,0.00,,---,0.00,VWS V14.01,2013-07-18 10:51:00,
2013-07-18 05:53:00,62.4,56.9,25.13,SE,143,6.3,6.3,82,0.00,,---,0.00,VWS V14.01,2013-07-18 10:53:00,
2013-07-18 05:54:00,62.4,56.9,25.13,SE,144,3.6,4.0,82,0.00,,---,0.00,VWS V14.01,2013-07-18 10:54:00,
2013-07-18 05:55:00,62.4,56.9,25.13,SE,144,3.6,3.6,82,0.00,,---,0.00,VWS V14.01,2013-07-18 10:55:00,
2013-07-18 05:57:00,62.2,57.0,25.13,SE,144,3.6,3.6,83,0.00,,---,0.00,VWS V14.01,2013-07-18 10:57:00,
2013-07-18 05:58:00,62.2,57.0,25.13,SSE,157,2.7,3.6,83,0.00,,---,0.00,VWS V14.01,2013-07-18 10:58:00,
2013-07-18 06:00:00,62.2,57.0,25.13,SSE,159,3.1,5.8,83,0.00,,---,0.00,VWS V14.01,2013-07-18 11:00:00,
2013-07-18 06:01:00,62.2,57.0,25.13,SE,140,5.4,5.8,83,0.00,,---,0.00,VWS V14.01,2013-07-18 11:01:00,
2013-07-18 06:02:00,62.2,57.0,25.13,SE,136,4.0,5.4,83,0.00,,---,0.00,VWS V14.01,2013-07-18 11:02:00,
2013-07-18 06:03:00,62.2,57.3,25.13,SE,136,4.0,4.0,84,0.00,,---,0.00,VWS V14.01,2013-07-18 11:03:00,
2013-07-18 06:05:00,62.2,57.3,25.16,SE,136,4.0,4.0,84,0.00,,---,0.00,VWS V14.01,2013-07-18 11:05:00,
2013-07-18 06:06:00,62.2,57.3,25.16,SSE,166,3.1,4.0,84,0.00,,---,0.00,VWS V14.01,2013-07-18 11:06:00,
2013-07-18 06:07:00,62.2,57.3,25.16,SSE,166,3.1,4.0,84,0.00,,---,0.00,VWS V14.01,2013-07-18 11:07:00,
2013-07-18 06:08:00,62.2,57.3,25.16,SSE,166,3.1,3.1,84,0.00,,---,0.00,VWS V14.01,2013-07-18 11:08:00,
2013-07-18 06:10:00,62.2,57.3,25.16,SSW,202,5.4,5.4,84,0.00,,---,0.00,VWS V14.01,2013-07-18 11:10:00,
2013-07-18 06:11:00,62.2,57.7,25.16,SSE,150,4.0,4.0,85,0.00,,---,0.00,VWS V14.01,2013-07-18 11:11:00,
2013-07-18 06:12:00,62.2,57.7,25.16,SSE,150,4.0,4.0,85,0.00,,---,0.00,VWS V14.01,2013-07-18 11:12:00,
2013-07-18 06:13:00,62.2,57.7,25.16,SSE,155,3.6,3.6,85,0.00,,---,0.00,VWS V14.01,2013-07-18 11:13:00,
2013-07-18 06:15:00,62.2,57.7,25.16,SSE,164,4.9,4.9,85,0.00,,---,0.00,VWS V14.01,2013-07-18 11:15:00,
2013-07-18 06:16:00,62.2,57.7,25.16,SSE,147,3.6,5.8,85,0.00,,---,0.00,VWS V14.01,2013-07-18 11:16:00,
2013-07-18 06:17:00,62.2,57.7,25.16,SSE,147,3.6,3.6,85,0.00,,---,0.00,VWS V14.01,2013-07-18 11:17:00,
2013-07-18 06:18:00,62.2,57.7,25.16,SSE,160,3.6,3.6,85,0.00,,---,0.00,VWS V14.01,2013-07-18 11:18:00,
2013-07-18 06:19:00,62.2,57.7,25.16,SSE,160,3.6,3.6,85,0.00,,---,0.00,VWS V14.01,2013-07-18 11:19:00,
2013-07-18 06:20:00,62.2,58.0,25.16,SSE,163,4.5,4.5,86,0.00,,---,0.00,VWS V14.01,2013-07-18 11:20:00,
2013-07-18 06:21:00,62.2,58.0,25.16,SSE,163,4.5,4.5,86,0.00,,---,0.00,VWS V14.01,2013-07-18 11:21:00,
2013-07-18 06:22:00,62.2,58.0,25.16,SSW,201,3.1,4.9,86,0.00,,---,0.00,VWS V14.01,2013-07-18 11:22:00,
2013-07-18 06:24:00,62.2,58.0,25.16,East,92,4.9,4.9,86,0.00,,---,0.00,VWS V14.01,2013-07-18 11:24:00,
2013-07-18 06:25:00,62.2,58.0,25.16,SSE,162,5.4,5.4,86,0.00,,---,0.00,VWS V14.01,2013-07-18 11:25:00,
2013-07-18 06:27:00,62.2,58.0,25.16,SSE,160,4.9,4.9,86,0.00,,---,0.00,VWS V14.01,2013-07-18 11:27:00,
2013-07-18 06:28:00,62.1,58.2,25.16,SE,135,5.8,5.8,87,0.00,,---,0.00,VWS V14.01,2013-07-18 11:28:00,
2013-07-18 06:30:00,62.1,58.2,25.16,SE,142,4.0,5.8,87,0.00,,---,0.00,VWS V14.01,2013-07-18 11:30:00,
2013-07-18 06:32:00,62.1,58.2,25.16,SE,142,4.0,4.0,87,0.00,,---,0.00,VWS V14.01,2013-07-18 11:32:00,
2013-07-18 06:34:00,62.1,58.2,25.16,SSE,159,4.0,4.0,87,0.00,,---,0.00,VWS V14.01,2013-07-18 11:34:00,
2013-07-18 06:35:00,62.1,58.2,25.16,SSE,159,4.0,4.0,87,0.00,,---,0.00,VWS V14.01,2013-07-18 11:35:00,
2013-07-18 06:37:00,62.1,58.5,25.16,SSE,152,4.9,4.9,88,0.00,,---,0.00,VWS V14.01,2013-07-18 11:37:00,
2013-07-18 06:39:00,62.1,58.5,25.16,SE,143,4.0,4.0,88,0.00,,---,0.00,VWS V14.01,2013-07-18 11:39:00,
2013-07-18 06:40:00,62.1,58.5,25.16,SSE,151,4.0,4.0,88,0.00,,---,0.00,VWS V14.01,2013-07-18 11:40:00,
2013-07-18 06:42:00,62.1,58.5,25.16,SE,140,5.4,5.4,88,0.00,,---,0.00,VWS V14.01,2013-07-18 11:42:00,
2013-07-18 06:45:00,62.1,58.5,25.16,SSE,165,3.1,3.1,88,0.00,,---,0.00,VWS V14.01,2013-07-18 11:45:00,
2013-07-18 06:46:00,62.1,58.5,25.16,SE,134,4.9,4.9,88,0.00,,---,0.00,VWS V14.01,2013-07-18 11:46:00,
2013-07-18 06:48:00,62.1,58.5,25.16,SE,134,4.9,4.9,88,0.00,,---,0.00,VWS V14.01,2013-07-18 11:48:00,
2013-07-18 06:50:00,62.1,58.5,25.16,SE,134,4.9,4.9,88,0.00,,---,0.00,VWS V14.01,2013-07-18 11:50:00,
2013-07-18 06:51:00,62.1,58.5,25.16,SE,143,4.0,4.0,88,0.00,,---,0.00,VWS V14.01,2013-07-18 11:51:00,
2013-07-18 06:53:00,62.1,58.5,25.16,SSE,149,5.4,5.4,88,0.00,,---,0.00,VWS V14.01,2013-07-18 11:53:00,
2013-07-18 06:55:00,62.1,58.8,25.16,SSE,167,5.4,5.4,89,0.00,,---,0.00,VWS V14.01,2013-07-18 11:55:00,
2013-07-18 06:56:00,62.1,58.8,25.16,SSE,167,5.4,5.4,89,0.00,,---,0.00,VWS V14.01,2013-07-18 11:56:00,
2013-07-18 06:58:00,62.1,58.8,25.16,South,171,4.0,5.4,89,0.00,,---,0.00,VWS V14.01,2013-07-18 11:58:00,
2013-07-18 07:00:00,62.1,58.8,25.16,SSE,154,3.6,4.0,89,0.00,,---,0.00,VWS V14.01,2013-07-18 12:00:00,
2013-07-18 07:01:00,62.1,58.8,25.16,SE,142,4.9,4.9,89,0.00,,---,0.00,VWS V14.01,2013-07-18 12:01:00,
2013-07-18 07:03:00,62.1,58.8,25.16,SE,142,4.9,4.9,89,0.00,,---,0.00,VWS V14.01,2013-07-18 12:03:00,
2013-07-18 07:05:00,62.1,58.8,25.16,SE,125,3.6,3.6,89,0.00,,---,0.00,VWS V14.01,2013-07-18 12:05:00,
2013-07-18 07:06:00,62.1,58.8,25.16,South,175,4.5,4.5,89,0.00,,---,0.00,VWS V14.01,2013-07-18 12:06:00,
2013-07-18 07:07:00,62.1,58.8,25.16,South,175,4.5,4.5,89,0.00,,---,0.00,VWS V14.01,2013-07-18 12:07:00,
2013-07-18 07:08:00,62.1,58.8,25.16,SSE,163,3.6,4.5,89,0.00,,---,0.00,VWS V14.01,2013-07-18 12:08:00,
2013-07-18 07:10:00,62.1,58.8,25.16,SSE,167,4.0,4.0,89,0.00,,---,0.00,VWS V14.01,2013-07-18 12:10:00,
2013-07-18 07:11:00,62.1,58.8,25.16,SSE,167,4.0,4.0,89,0.00,,---,0.00,VWS V14.01,2013-07-18 12:11:00,
2013-07-18 07:12:00,62.1,58.8,25.16,SSE,158,2.2,2.2,89,0.00,,---,0.00,VWS V14.01,2013-07-18 12:12:00,
2013-07-18 07:13:00,62.1,58.8,25.16,SE,129,4.9,4.9,89,0.00,,---,0.00,VWS V14.01,2013-07-18 12:13:00,
2013-07-18 07:15:00,62.1,58.8,25.16,SE,129,4.9,4.9,89,0.00,,---,0.00,VWS V14.01,2013-07-18 12:15:00,
2013-07-18 07:16:00,62.1,58.8,25.16,SE,140,5.4,5.4,89,0.00,,---,0.00,VWS V14.01,2013-07-18 12:16:00,
2013-07-18 07:17:00,62.1,58.8,25.16,SE,128,4.9,4.9,89,0.00,,---,0.00,VWS V14.01,2013-07-18 12:17:00,
2013-07-18 07:18:00,62.1,59.1,25.16,SE,136,6.3,6.3,90,0.00,,---,0.00,VWS V14.01,2013-07-18 12:18:00,
2013-07-18 07:21:00,62.1,59.1,25.16,SE,145,3.6,3.6,90,0.00,,---,0.00,VWS V14.01,2013-07-18 12:21:00,
2013-07-18 07:22:00,62.1,59.1,25.16,SE,144,3.6,3.6,90,0.00,,---,0.00,VWS V14.01,2013-07-18 12:22:00,
2013-07-18 07:23:00,62.1,59.1,25.16,SE,144,3.6,3.6,90,0.00,,---,0.00,VWS V14.01,2013-07-18 12:23:00,
2013-07-18 07:27:00,62.1,59.1,25.16,SE,144,3.1,3.1,90,0.00,,---,0.00,VWS V14.01,2013-07-18 12:27:00,
2013-07-18 07:28:00,62.1,59.1,25.16,SE,141,6.3,6.3,90,0.00,,---,0.00,VWS V14.01,2013-07-18 12:28:00,
2013-07-18 07:29:00,62.2,59.3,25.16,SE,141,6.3,6.3,90,0.00,,---,0.00,VWS V14.01,2013-07-18 12:29:00,
2013-07-18 07:32:00,62.2,59.3,25.16,SE,129,6.3,6.3,90,0.00,,---,0.00,VWS V14.01,2013-07-18 12:32:00,
2013-07-18 07:33:00,62.2,59.3,25.16,SE,129,6.3,6.3,90,0.00,,---,0.00,VWS V14.01,2013-07-18 12:33:00,
2013-07-18 07:34:00,62.2,59.3,25.16,SSE,159,3.6,3.6,90,0.00,,---,0.00,VWS V14.01,2013-07-18 12:34:00,
2013-07-18 07:38:00,62.1,58.8,25.16,SSE,162,4.0,4.0,89,0.00,,---,0.00,VWS V14.01,2013-07-18 12:38:00,
2013-07-18 07:39:00,62.1,58.8,25.16,SSE,158,5.8,5.8,89,0.00,,---,0.00,VWS V14.01,2013-07-18 12:39:00,
2013-07-18 07:43:00,62.1,58.8,25.16,SSE,162,3.6,3.6,89,0.00,,---,0.00,VWS V14.01,2013-07-18 12:43:00,
2013-07-18 07:44:00,62.1,58.8,25.16,SSE,164,8.3,8.3,89,0.00,,---,0.00,VWS V14.01,2013-07-18 12:44:00,
2013-07-18 07:48:00,62.1,58.5,25.16,SSE,165,3.1,3.1,88,0.00,,---,0.00,VWS V14.01,2013-07-18 12:48:00,
2013-07-18 07:49:00,62.1,58.5,25.16,SE,141,5.8,5.8,88,0.00,,---,0.00,VWS V14.01,2013-07-18 12:49:00,
2013-07-18 07:50:00,62.1,58.5,25.16,South,178,6.3,6.3,88,0.00,,---,0.00,VWS V14.01,2013-07-18 12:50:00,
2013-07-18 07:53:00,62.1,58.5,25.16,SE,139,4.9,6.3,88,0.00,,---,0.00,VWS V14.01,2013-07-18 12:53:00,
2013-07-18 07:54:00,62.2,58.3,25.16,SE,139,4.9,4.9,87,0.00,,---,0.00,VWS V14.01,2013-07-18 12:54:00,
2013-07-18 07:55:00,62.2,58.3,25.16,SE,139,4.9,4.9,87,0.00,,---,0.00,VWS V14.01,2013-07-18 12:55:00,
2013-07-18 07:58:00,62.2,58.3,25.16,SSE,166,5.8,5.8,87,0.00,,---,0.00,VWS V14.01,2013-07-18 12:58:00,
2013-07-18 07:59:00,62.2,58.3,25.16,SSE,162,4.9,5.8,87,0.00,,---,0.00,VWS V14.01,2013-07-18 12:59:00,
2013-07-18 08:00:00,62.2,58.3,25.16,SSE,162,4.9,4.9,87,0.00,,---,0.00,VWS V14.01,2013-07-18 13:00:00,
2013-07-18 08:04:00,62.2,58.3,25.16,SE,136,5.4,5.4,87,0.00,,---,0.00,VWS V14.01,2013-07-18 13:04:00,
2013-07-18 08:05:00,62.2,58.3,25.16,SE,136,5.4,5.4,87,0.00,,---,0.00,VWS V14.01,2013-07-18 13:05:00,
2013-07-18 08:10:00,62.2,58.3,25.16,SE,144,4.0,4.0,87,0.00,,---,0.00,VWS V14.01,2013-07-18 13:10:00,
2013-07-18 08:11:00,62.2,58.3,25.16,South,176,4.0,5.8,87,0.00,,---,0.00,VWS V14.01,2013-07-18 13:11:00,
2013-07-18 08:15:00,62.2,59.0,25.16,SE,128,4.0,4.0,89,0.00,,---,0.00,VWS V14.01,2013-07-18 13:15:00,
2013-07-18 08:16:00,62.2,59.0,25.16,SE,135,4.0,4.0,89,0.00,,---,0.00,VWS V14.01,2013-07-18 13:16:00,
2013-07-18 08:19:00,62.2,59.0,25.16,SE,131,4.0,4.0,89,0.00,,---,0.00,VWS V14.01,2013-07-18 13:19:00,
2013-07-18 08:20:00,62.2,59.0,25.16,SE,131,4.0,4.0,89,0.00,,---,0.00,VWS V14.01,2013-07-18 13:20:00,
2013-07-18 08:21:00,62.2,59.3,25.16,SE,131,4.0,4.0,90,0.00,,---,0.00,VWS V14.01,2013-07-18 13:21:00,
2013-07-18 08:24:00,62.2,59.3,25.16,SE,134,4.0,4.0,90,0.00,,---,0.00,VWS V14.01,2013-07-18 13:24:00,
2013-07-18 08:25:00,62.2,59.3,25.16,SE,136,4.9,4.9,90,0.00,,---,0.00,VWS V14.01,2013-07-18 13:25:00,
2013-07-18 08:26:00,62.2,59.3,25.16,ESE,112,3.6,4.9,90,0.00,,---,0.00,VWS V14.01,2013-07-18 13:26:00,
2013-07-18 08:27:00,62.2,59.3,25.16,ESE,112,3.6,3.6,90,0.00,,---,0.00,VWS V14.01,2013-07-18 13:27:00,
2013-07-18 08:29:00,62.2,59.3,25.16,ESE,119,3.1,3.1,90,0.00,,---,0.00,VWS V14.01,2013-07-18 13:29:00,
2013-07-18 08:30:00,62.2,59.3,25.16,ESE,119,3.1,3.1,90,0.00,,---,0.00,VWS V14.01,2013-07-18 13:30:00,
2013-07-18 08:31:00,62.2,59.3,25.16,ESE,119,3.1,3.1,90,0.00,,---,0.00,VWS V14.01,2013-07-18 13:31:00,
2013-07-18 08:32:00,62.4,59.5,25.16,ESE,119,3.1,3.1,90,0.00,,---,0.00,VWS V14.01,2013-07-18 13:32:00,
2013-07-18 08:34:00,62.4,59.5,25.16,SE,130,0.0,3.6,90,0.00,,---,0.00,VWS V14.01,2013-07-18 13:34:00,
2013-07-18 08:36:00,62.4,59.5,25.16,ESE,116,5.4,5.4,90,0.00,,---,0.00,VWS V14.01,2013-07-18 13:36:00,
2013-07-18 08:37:00,62.4,59.5,25.16,ESE,116,5.4,5.4,90,0.00,,---,0.00,VWS V14.01,2013-07-18 13:37:00,
2013-07-18 08:40:00,62.6,59.6,25.16,ESE,116,5.4,5.4,90,0.00,,---,0.00,VWS V14.01,2013-07-18 13:40:00,
2013-07-18 08:41:00,62.6,59.6,25.16,East,98,3.1,5.4,90,0.00,,---,0.00,VWS V14.01,2013-07-18 13:41:00,
2013-07-18 08:42:00,62.6,59.6,25.16,ESE,105,3.6,3.6,90,0.00,,---,0.00,VWS V14.01,2013-07-18 13:42:00,
2013-07-18 08:43:00,62.6,59.6,25.16,ESE,105,3.6,3.6,90,0.00,,---,0.00,VWS V14.01,2013-07-18 13:43:00,
2013-07-18 08:45:00,62.6,59.6,25.16,ESE,105,3.6,3.6,90,0.00,,---,0.00,VWS V14.01,2013-07-18 13:45:00,
2013-07-18 08:46:00,62.8,59.5,25.16,ESE,118,5.8,5.8,89,0.00,,---,0.00,VWS V14.01,2013-07-18 13:46:00,
2013-07-18 08:47:00,62.8,59.5,25.16,ESE,118,5.8,5.8,89,0.00,,---,0.00,VWS V14.01,2013-07-18 13:47:00,
2013-07-18 08:48:00,62.8,59.5,25.16,ESE,118,5.8,5.8,89,0.00,,---,0.00,VWS V14.01,2013-07-18 13:48:00,
2013-07-18 08:50:00,62.8,59.5,25.16,SE,146,5.4,5.4,89,0.00,,---,0.00,VWS V14.01,2013-07-18 13:50:00,
2013-07-18 08:52:00,62.8,59.5,25.16,SE,146,5.4,5.4,89,0.00,,---,0.00,VWS V14.01,2013-07-18 13:52:00,
2013-07-18 08:53:00,62.8,58.9,25.16,SE,146,5.4,5.4,87,0.00,,---,0.00,VWS V14.01,2013-07-18 13:53:00,
2013-07-18 08:54:00,62.8,58.9,25.16,SE,146,5.4,5.4,87,0.00,,---,0.00,VWS V14.01,2013-07-18 13:54:00,
2013-07-18 08:55:00,62.8,58.5,25.16,SSE,152,4.0,5.8,86,0.00,,---,0.00,VWS V14.01,2013-07-18 13:55:00,
2013-07-18 08:58:00,62.8,58.2,25.16,SE,142,5.4,5.4,85,0.00,,---,0.00,VWS V14.01,2013-07-18 13:58:00,
2013-07-18 08:59:00,62.8,58.2,25.16,SE,142,5.4,5.4,85,0.00,,---,0.00,VWS V14.01,2013-07-18 13:59:00,
2013-07-18 09:01:00,62.8,58.2,25.16,SSE,155,3.6,3.6,85,0.00,,---,0.00,VWS V14.01,2013-07-18 14:01:00,
2013-07-18 09:03:00,63.0,58.1,25.16,SSE,150,4.9,4.9,84,0.00,,---,0.00,VWS V14.01,2013-07-18 14:03:00,
2013-07-18 09:04:00,63.0,57.7,25.16,SSE,150,4.9,4.9,83,0.00,,---,0.00,VWS V14.01,2013-07-18 14:04:00,
2013-07-18 09:05:00,63.0,57.4,25.16,SSE,150,4.9,4.9,82,0.00,,---,0.00,VWS V14.01,2013-07-18 14:05:00,
2013-07-18 09:06:00,63.0,57.4,25.16,SSE,150,4.9,4.9,82,0.00,,---,0.00,VWS V14.01,2013-07-18 14:06:00,
2013-07-18 09:09:00,63.0,57.4,25.16,SE,137,5.4,5.4,82,0.00,,---,0.00,VWS V14.01,2013-07-18 14:09:00,
2013-07-18 09:10:00,63.1,57.2,25.16,SE,137,5.4,5.4,81,0.00,,---,0.00,VWS V14.01,2013-07-18 14:10:00,
2013-07-18 09:11:00,63.1,57.2,25.16,SE,140,3.6,3.6,81,0.00,,---,0.00,VWS V14.01,2013-07-18 14:11:00,
2013-07-18 09:12:00,63.1,57.2,25.16,SE,140,3.6,3.6,81,0.00,,---,0.00,VWS V14.01,2013-07-18 14:12:00,
2013-07-18 09:14:00,63.3,56.7,25.16,SSE,162,4.9,4.9,79,0.00,,---,0.00,VWS V14.01,2013-07-18 14:14:00,
2013-07-18 09:15:00,63.3,56.7,25.16,SSE,162,4.9,4.9,79,0.00,,---,0.00,VWS V14.01,2013-07-18 14:15:00,
2013-07-18 09:16:00,63.3,56.7,25.16,SSE,162,4.9,4.9,79,0.00,,---,0.00,VWS V14.01,2013-07-18 14:16:00,
2013-07-18 09:17:00,63.3,56.7,25.16,SE,146,3.6,4.9,79,0.00,,---,0.00,VWS V14.01,2013-07-18 14:17:00,
2013-07-18 09:19:00,63.3,56.7,25.16,SE,146,3.6,3.6,79,0.00,,---,0.00,VWS V14.01,2013-07-18 14:19:00,
2013-07-18 09:20:00,63.3,56.7,25.16,SE,146,3.6,3.6,79,0.00,,---,0.00,VWS V14.01,2013-07-18 14:20:00,
2013-07-18 09:21:00,63.7,57.0,25.16,SSE,147,3.6,3.6,79,0.00,,---,0.00,VWS V14.01,2013-07-18 14:21:00,
2013-07-18 09:22:00,63.7,57.0,25.16,SSE,147,3.6,3.6,79,0.00,,---,0.00,VWS V14.01,2013-07-18 14:22:00,
2013-07-18 09:24:00,63.5,56.5,25.16,ESE,118,7.6,7.6,78,0.00,,---,0.00,VWS V14.01,2013-07-18 14:24:00,
2013-07-18 09:25:00,63.5,55.8,25.16,ESE,118,7.6,7.6,76,0.00,,---,0.00,VWS V14.01,2013-07-18 14:25:00,
2013-07-18 09:27:00,63.5,55.8,25.16,SSE,156,5.8,5.8,76,0.00,,---,0.00,VWS V14.01,2013-07-18 14:27:00,
2013-07-18 09:30:00,63.7,56.3,25.16,SSE,163,5.8,5.8,77,0.00,,---,0.00,VWS V14.01,2013-07-18 14:30:00,
2013-07-18 09:31:00,63.7,56.3,25.16,South,189,4.9,4.9,77,0.00,,---,0.00,VWS V14.01,2013-07-18 14:31:00,
2013-07-18 09:32:00,63.7,56.3,25.16,SSE,158,4.0,4.0,77,0.00,,---,0.00,VWS V14.01,2013-07-18 14:32:00,
2013-07-18 09:33:00,63.7,56.3,25.16,SSE,158,4.0,4.0,77,0.00,,---,0.00,VWS V14.01,2013-07-18 14:33:00,
2013-07-18 09:35:00,63.7,56.3,25.16,SSE,147,5.4,5.4,77,0.00,,---,0.00,VWS V14.01,2013-07-18 14:35:00,
2013-07-18 09:36:00,63.7,56.3,25.16,SSE,147,5.4,5.4,77,0.00,,---,0.00,VWS V14.01,2013-07-18 14:36:00,
2013-07-18 09:37:00,63.7,56.3,25.16,SE,142,4.0,4.0,77,0.00,,---,0.00,VWS V14.01,2013-07-18 14:37:00,
2013-07-18 09:38:00,63.9,56.2,25.16,SE,142,4.9,4.9,76,0.00,,---,0.00,VWS V14.01,2013-07-18 14:38:00,
2013-07-18 09:40:00,63.9,56.5,25.16,SE,133,6.3,6.3,77,0.00,,---,0.00,VWS V14.01,2013-07-18 14:40:00,
2013-07-18 09:41:00,63.9,56.5,25.16,SE,133,6.3,6.3,77,0.00,,---,0.00,VWS V14.01,2013-07-18 14:41:00,
2013-07-18 09:42:00,63.9,56.5,25.16,SE,133,6.3,6.3,77,0.00,,---,0.00,VWS V14.01,2013-07-18 14:42:00,
2013-07-18 09:44:00,63.7,56.3,25.16,SE,133,6.3,6.3,77,0.00,,---,0.00,VWS V14.01,2013-07-18 14:44:00,
2013-07-18 09:45:00,63.7,56.3,25.16,SE,132,4.0,6.3,77,0.00,,---,0.00,VWS V14.01,2013-07-18 14:45:00,
2013-07-18 09:46:00,63.7,56.3,25.16,SE,132,4.0,4.0,77,0.00,,---,0.00,VWS V14.01,2013-07-18 14:46:00,
2013-07-18 09:47:00,63.7,57.0,25.16,SE,132,4.0,4.0,79,0.00,,---,0.00,VWS V14.01,2013-07-18 14:47:00,
2013-07-18 09:49:00,63.7,57.4,25.16,South,170,4.0,4.0,80,0.00,,---,0.00,VWS V14.01,2013-07-18 14:49:00,
2013-07-18 09:50:00,63.7,57.4,25.16,SSE,167,5.4,5.4,80,0.00,,---,0.00,VWS V14.01,2013-07-18 14:50:00,
2013-07-18 09:51:00,63.9,57.9,25.16,SSE,167,5.4,5.4,81,0.00,,---,0.00,VWS V14.01,2013-07-18 14:51:00,
2013-07-18 09:52:00,63.9,57.9,25.16,SSW,212,5.4,6.3,81,0.00,,---,0.00,VWS V14.01,2013-07-18 14:52:00,
2013-07-18 09:54:00,63.7,57.4,25.16,SSE,153,5.4,5.4,80,0.00,,---,0.00,VWS V14.01,2013-07-18 14:54:00,
2013-07-18 09:55:00,63.9,57.9,25.16,SSE,153,5.4,5.4,81,0.00,,---,0.00,VWS V14.01,2013-07-18 14:55:00,
2013-07-18 09:57:00,63.9,57.9,25.16,SSE,153,5.4,5.4,81,0.00,,---,0.00,VWS V14.01,2013-07-18 14:57:00,
2013-07-18 09:58:00,63.9,57.9,25.16,SSE,153,5.4,5.4,81,0.00,,---,0.00,VWS V14.01,2013-07-18 14:58:00,
2013-07-18 09:59:00,63.9,57.9,25.16,ESE,122,7.2,7.2,81,0.00,,---,0.00,VWS V14.01,2013-07-18 14:59:00,
2013-07-18 10:01:00,63.9,57.9,25.16,ESE,122,7.2,7.2,81,0.00,,---,0.00,VWS V14.01,2013-07-18 15:01:00,
2013-07-18 10:02:00,63.9,57.9,25.16,SE,128,3.6,3.6,81,0.00,,---,0.00,VWS V14.01,2013-07-18 15:02:00,
2013-07-18 10:03:00,63.9,57.9,25.16,SSE,147,4.0,4.0,81,0.00,,---,0.00,VWS V14.01,2013-07-18 15:03:00,
2013-07-18 10:05:00,63.9,57.2,25.16,SSE,160,4.9,4.9,79,0.00,,---,0.00,VWS V14.01,2013-07-18 15:05:00,
2013-07-18 10:06:00,63.7,57.4,25.16,SE,140,6.3,6.3,80,0.00,,---,0.00,VWS V14.01,2013-07-18 15:06:00,
2013-07-18 10:07:00,63.9,57.9,25.16,SSE,166,4.9,4.9,81,0.00,,---,0.00,VWS V14.01,2013-07-18 15:07:00,
2013-07-18 10:08:00,63.9,57.9,25.16,SSE,166,4.9,4.9,81,0.00,,---,0.00,VWS V14.01,2013-07-18 15:08:00,
2013-07-18 10:10:00,63.9,57.9,25.16,SSE,166,4.9,4.9,81,0.00,,---,0.00,VWS V14.01,2013-07-18 15:10:00,
2013-07-18 10:11:00,63.9,57.9,25.16,SSE,166,4.9,4.9,81,0.00,,---,0.00,VWS V14.01,2013-07-18 15:11:00,
2013-07-18 10:12:00,63.9,57.9,25.16,SSE,166,4.9,4.9,81,0.00,,---,0.00,VWS V14.01,2013-07-18 15:12:00,
2013-07-18 10:13:00,63.9,57.9,25.16,SSE,151,7.2,7.2,81,0.00,,---,0.00,VWS V14.01,2013-07-18 15:13:00,
2013-07-18 10:16:00,63.9,57.6,25.16,SSE,163,6.3,6.3,80,0.00,,---,0.00,VWS V14.01,2013-07-18 15:16:00,
2013-07-18 10:18:00,64.2,58.6,25.16,South,181,5.8,6.3,82,0.00,,---,0.00,VWS V14.01,2013-07-18 15:18:00,
2013-07-18 10:21:00,64.2,58.6,25.16,SSE,160,4.9,4.9,82,0.00,,---,0.00,VWS V14.01,2013-07-18 15:21:00,
2013-07-18 10:23:00,64.2,58.3,25.16,SSE,160,4.9,4.9,81,0.00,,---,0.00,VWS V14.01,2013-07-18 15:23:00,
2013-07-18 10:26:00,64.0,57.8,25.16,South,185,5.4,5.4,80,0.00,,---,0.00,VWS V14.01,2013-07-18 15:26:00,
2013-07-18 10:28:00,64.0,57.8,25.16,SSE,164,4.0,5.4,80,0.00,,---,0.00,VWS V14.01,2013-07-18 15:28:00,
2013-07-18 10:31:00,64.0,58.4,25.16,South,169,5.8,6.3,82,0.00,,---,0.00,VWS V14.01,2013-07-18 15:31:00,
2013-07-18 10:33:00,64.0,58.8,25.16,SSE,151,7.6,7.6,83,0.00,,---,0.00,VWS V14.01,2013-07-18 15:33:00,
2013-07-18 10:34:00,64.0,58.8,25.16,South,170,6.3,7.6,83,0.00,,---,0.00,VWS V14.01,2013-07-18 15:34:00,
2013-07-18 10:36:00,64.0,58.8,25.16,South,178,8.7,8.7,83,0.00,,---,0.00,VWS V14.01,2013-07-18 15:36:00,
2013-07-18 10:38:00,63.9,58.6,25.16,South,179,8.7,9.2,83,0.00,,---,0.00,VWS V14.01,2013-07-18 15:38:00,
2013-07-18 10:39:00,63.9,58.6,25.16,South,170,5.8,9.2,83,0.00,,---,0.00,VWS V14.01,2013-07-18 15:39:00,
2013-07-18 10:40:00,63.9,58.6,25.16,South,170,5.8,5.8,83,0.00,,---,0.00,VWS V14.01,2013-07-18 15:40:00,
2013-07-18 10:41:00,63.7,58.4,25.16,SSE,152,5.8,6.3,83,0.00,,---,0.00,VWS V14.01,2013-07-18 15:41:00,
2013-07-18 10:42:00,63.7,58.4,25.16,SSE,152,5.8,5.8,83,0.00,,---,0.00,VWS V14.01,2013-07-18 15:42:00,
2013-07-18 10:43:00,63.7,58.4,25.16,SE,138,4.0,5.8,83,0.00,,---,0.00,VWS V14.01,2013-07-18 15:43:00,
2013-07-18 10:44:00,63.7,58.4,25.16,SE,138,4.0,5.8,83,0.00,,---,0.00,VWS V14.01,2013-07-18 15:44:00,
2013-07-18 10:45:00,64.0,59.5,25.16,South,171,6.3,6.3,85,0.00,,---,0.00,VWS V14.01,2013-07-18 15:45:00,
2013-07-18 10:47:00,64.0,59.5,25.16,South,169,5.8,5.8,85,0.00,,---,0.00,VWS V14.01,2013-07-18 15:47:00,
2013-07-18 10:48:00,64.0,59.5,25.16,South,170,5.8,5.8,85,0.00,,---,0.00,VWS V14.01,2013-07-18 15:48:00,
2013-07-18 10:49:00,64.0,59.5,25.16,South,170,5.8,5.8,85,0.00,,---,0.00,VWS V14.01,2013-07-18 15:49:00,
2013-07-18 10:50:00,64.0,59.5,25.16,SE,133,5.8,5.8,85,0.00,,---,0.00,VWS V14.01,2013-07-18 15:50:00,
2013-07-18 10:52:00,64.0,59.5,25.16,SE,133,5.8,5.8,85,0.00,,---,0.00,VWS V14.01,2013-07-18 15:52:00,
2013-07-18 10:54:00,64.0,58.1,25.16,SE,126,5.8,6.3,81,0.00,,---,0.00,VWS V14.01,2013-07-18 15:54:00,
2013-07-18 10:55:00,64.0,58.1,25.16,SSE,153,5.4,5.4,81,0.00,,---,0.00,VWS V14.01,2013-07-18 15:55:00,
2013-07-18 10:57:00,64.0,58.4,25.16,SE,141,7.6,7.6,82,0.00,,---,0.00,VWS V14.01,2013-07-18 15:57:00,
2013-07-18 10:59:00,64.0,58.4,25.16,SE,136,7.6,7.6,82,0.00,,---,0.00,VWS V14.01,2013-07-18 15:59:00,
2013-07-18 11:00:00,64.0,58.4,25.16,SE,136,7.6,7.6,82,0.00,,---,0.00,VWS V14.01,2013-07-18 16:00:00,
2013-07-18 11:01:00,63.7,58.4,25.16,SE,136,7.6,7.6,83,0.00,,---,0.00,VWS V14.01,2013-07-18 16:01:00,
2013-07-18 11:02:00,63.7,58.4,25.16,SSE,147,5.4,7.6,83,0.00,,---,0.00,VWS V14.01,2013-07-18 16:02:00,
2013-07-18 11:04:00,63.7,58.4,25.16,SE,134,8.7,8.7,83,0.00,,---,0.00,VWS V14.01,2013-07-18 16:04:00,
2013-07-18 11:05:00,63.7,59.1,25.16,SE,134,8.7,8.7,85,0.00,,---,0.00,VWS V14.01,2013-07-18 16:05:00,
2013-07-18 11:06:00,63.7,59.1,25.16,SE,134,8.7,8.7,85,0.00,,---,0.00,VWS V14.01,2013-07-18 16:06:00,
2013-07-18 11:07:00,63.7,59.4,25.16,SSE,162,6.7,6.7,86,0.00,,---,0.00,VWS V14.01,2013-07-18 16:07:00,
2013-07-18 11:08:00,63.7,59.4,25.16,SSE,163,8.3,8.3,86,0.00,,---,0.00,VWS V14.01,2013-07-18 16:08:00,
2013-07-18 11:09:00,63.7,59.4,25.16,SE,140,5.8,8.3,86,0.00,,---,0.00,VWS V14.01,2013-07-18 16:09:00,
2013-07-18 11:10:00,63.7,59.4,25.16,SE,138,7.6,7.6,86,0.00,,---,0.00,VWS V14.01,2013-07-18 16:10:00,
2013-07-18 11:11:00,63.7,59.4,25.16,SE,138,7.6,7.6,86,0.00,,---,0.00,VWS V14.01,2013-07-18 16:11:00,
2013-07-18 11:12:00,63.7,59.4,25.16,SSE,154,4.9,5.4,86,0.00,,---,0.00,VWS V14.01,2013-07-18 16:12:00,
2013-07-18 11:13:00,63.7,59.4,25.16,SSE,158,5.4,5.4,86,0.00,,---,0.00,VWS V14.01,2013-07-18 16:13:00,
2013-07-18 11:14:00,63.7,59.4,25.16,SSE,158,5.4,5.4,86,0.00,,---,0.00,VWS V14.01,2013-07-18 16:14:00,
2013-07-18 11:16:00,63.7,59.4,25.16,SSE,158,5.4,5.4,86,0.00,,---,0.00,VWS V14.01,2013-07-18 16:16:00,
2013-07-18 11:17:00,63.7,59.4,25.16,SE,137,7.6,7.6,86,0.00,,---,0.00,VWS V14.01,2013-07-18 16:17:00,
2013-07-18 11:19:00,63.7,59.4,25.16,SE,128,7.2,7.2,86,0.00,,---,0.00,VWS V14.01,2013-07-18 16:19:00,
2013-07-18 11:20:00,63.7,59.4,25.16,SSE,148,8.3,8.3,86,0.00,,---,0.00,VWS V14.01,2013-07-18 16:20:00,
2013-07-18 11:21:00,63.7,59.7,25.16,SE,132,5.8,8.3,87,0.00,,---,0.00,VWS V14.01,2013-07-18 16:21:00,
2013-07-18 11:22:00,63.7,59.7,25.16,SE,132,5.8,8.3,87,0.00,,---,0.00,VWS V14.01,2013-07-18 16:22:00,
2013-07-18 11:25:00,63.9,59.9,25.16,SE,138,6.7,6.7,87,0.00,,---,0.00,VWS V14.01,2013-07-18 16:25:00,
2013-07-18 11:26:00,63.9,59.9,25.16,ESE,115,6.3,6.3,87,0.00,,---,0.00,VWS V14.01,2013-07-18 16:26:00,
2013-07-18 11:27:00,63.9,59.9,25.16,SSE,159,6.3,6.3,87,0.00,,---,0.00,VWS V14.01,2013-07-18 16:27:00,
2013-07-18 11:28:00,63.9,59.9,25.16,SSE,159,6.3,6.3,87,0.00,,---,0.00,VWS V14.01,2013-07-18 16:28:00,
2013-07-18 11:31:00,63.9,59.9,25.16,SSE,160,4.0,4.0,87,0.00,,---,0.00,VWS V14.01,2013-07-18 16:31:00,
2013-07-18 11:32:00,63.9,59.9,25.16,SSE,158,7.6,7.6,87,0.00,,---,0.00,VWS V14.01,2013-07-18 16:32:00,
2013-07-18 11:34:00,63.9,59.9,25.16,SSE,167,7.6,9.6,87,0.00,,---,0.00,VWS V14.01,2013-07-18 16:34:00,
2013-07-18 11:36:00,63.9,59.9,25.16,SE,136,7.2,7.2,87,0.00,,---,0.00,VWS V14.01,2013-07-18 16:36:00,
2013-07-18 11:37:00,63.9,59.9,25.16,SSE,166,8.1,8.1,87,0.00,,---,0.00,VWS V14.01,2013-07-18 16:37:00,
2013-07-18 11:39:00,63.9,59.9,25.16,SSE,168,8.7,8.7,87,0.00,,---,0.00,VWS V14.01,2013-07-18 16:39:00,
2013-07-18 11:41:00,63.9,59.9,25.16,South,175,8.1,8.1,87,0.00,,---,0.00,VWS V14.01,2013-07-18 16:41:00,
2013-07-18 11:42:00,63.9,59.9,25.16,South,175,8.1,8.1,87,0.00,,---,0.00,VWS V14.01,2013-07-18 16:42:00,
2013-07-18 11:44:00,63.9,59.9,25.16,SE,145,8.7,8.7,87,0.00,,---,0.00,VWS V14.01,2013-07-18 16:44:00,
2013-07-18 11:45:00,63.9,59.9,25.16,SE,132,8.1,8.7,87,0.00,,---,0.00,VWS V14.01,2013-07-18 16:45:00,
2013-07-18 11:47:00,63.9,59.9,25.16,SE,133,6.7,6.7,87,0.00,,---,0.00,VWS V14.01,2013-07-18 16:47:00,
2013-07-18 11:49:00,63.9,59.9,25.16,SE,142,8.1,8.1,87,0.00,,---,0.00,VWS V14.01,2013-07-18 16:49:00,
2013-07-18 11:50:00,63.9,59.9,25.16,SSE,157,7.6,8.1,87,0.00,,---,0.00,VWS V14.01,2013-07-18 16:50:00,
2013-07-18 11:52:00,63.9,59.9,25.16,ESE,106,9.6,11.0,87,0.00,,---,0.00,VWS V14.01,2013-07-18 16:52:00,
2013-07-18 11:53:00,63.9,59.9,25.16,ESE,106,9.6,11.0,87,0.00,,---,0.00,VWS V14.01,2013-07-18 16:53:00,
2013-07-18 11:54:00,63.9,59.9,25.16,SE,127,5.8,9.6,87,0.00,,---,0.00,VWS V14.01,2013-07-18 16:54:00,
2013-07-18 11:55:00,63.9,59.9,25.16,SE,127,5.8,5.8,87,0.00,,---,0.00,VWS V14.01,2013-07-18 16:55:00,
2013-07-18 11:57:00,64.8,60.5,25.16,SE,124,8.1,8.1,86,0.00,,---,0.00,VWS V14.01,2013-07-18 16:57:00,
2013-07-18 11:59:00,64.9,60.3,25.16,SE,124,8.1,8.1,85,0.00,,---,0.00,VWS V14.01,2013-07-18 16:59:00,
2013-07-18 12:00:00,65.1,60.5,25.16,ESE,118,8.3,8.3,85,0.00,,---,0.00,VWS V14.01,2013-07-18 17:00:00,
2013-07-18 12:02:00,65.1,60.5,25.16,SE,139,8.3,8.3,85,0.00,,---,0.00,VWS V14.01,2013-07-18 17:02:00,
2013-07-18 12:04:00,65.1,60.5,25.16,SE,133,8.3,8.3,85,0.00,,---,0.00,VWS V14.01,2013-07-18 17:04:00,
2013-07-18 12:05:00,65.1,60.5,25.16,SE,133,8.3,8.3,85,0.00,,---,0.00,VWS V14.01,2013-07-18 17:05:00,
2013-07-18 12:06:00,65.1,60.5,25.16,SE,138,6.7,6.7,85,0.00,,---,0.00,VWS V14.01,2013-07-18 17:06:00,
2013-07-18 12:08:00,65.5,56.6,25.16,SE,138,6.7,6.7,73,0.00,,---,0.00,VWS V14.01,2013-07-18 17:08:00,
2013-07-18 12:10:00,65.5,56.6,25.16,SSE,165,7.6,7.6,73,0.00,,---,0.00,VWS V14.01,2013-07-18 17:10:00,
2013-07-18 12:11:00,65.8,55.8,25.16,SSE,165,7.6,7.6,70,0.00,,---,0.00,VWS V14.01,2013-07-18 17:11:00,
2013-07-18 12:13:00,65.8,55.8,25.16,SSE,155,8.3,8.3,70,0.00,,---,0.00,VWS V14.01,2013-07-18 17:13:00,
2013-07-18 12:15:00,66.0,55.6,25.16,South,173,5.8,5.8,69,0.00,,---,0.00,VWS V14.01,2013-07-18 17:15:00,
2013-07-18 12:16:00,66.0,55.6,25.16,South,173,5.8,5.8,69,0.00,,---,0.00,VWS V14.01,2013-07-18 17:16:00,
2013-07-18 12:18:00,66.0,55.6,25.16,SSE,164,5.4,5.4,69,0.00,,---,0.00,VWS V14.01,2013-07-18 17:18:00,
2013-07-18 12:20:00,66.0,55.6,25.16,SSE,157,8.7,8.7,69,0.00,,---,0.00,VWS V14.01,2013-07-18 17:20:00,
2013-07-18 12:21:00,66.0,55.6,25.16,SSE,157,8.7,8.7,69,0.00,,---,0.00,VWS V14.01,2013-07-18 17:21:00,
2013-07-18 12:24:00,65.8,54.6,25.16,SE,136,8.1,8.1,67,0.00,,---,0.00,VWS V14.01,2013-07-18 17:24:00,
2013-07-18 12:25:00,65.5,53.4,25.16,ESE,119,8.7,8.7,65,0.00,,---,0.00,VWS V14.01,2013-07-18 17:25:00,
2013-07-18 12:26:00,65.5,53.4,25.16,ESE,119,8.7,8.7,65,0.00,,---,0.00,VWS V14.01,2013-07-18 17:26:00,
2013-07-18 12:27:00,65.5,53.4,25.16,SE,145,10.5,10.5,65,0.00,,---,0.00,VWS V14.01,2013-07-18 17:27:00,
2013-07-18 12:29:00,65.1,53.9,25.16,ESE,106,5.8,10.5,67,0.00,,---,0.00,VWS V14.01,2013-07-18 17:29:00,
2013-07-18 12:31:00,65.1,53.9,25.16,ESE,106,5.8,5.8,67,0.00,,---,0.00,VWS V14.01,2013-07-18 17:31:00,
2013-07-18 12:32:00,65.1,53.9,25.16,ESE,106,5.8,5.8,67,0.00,,---,0.00,VWS V14.01,2013-07-18 17:32:00,
2013-07-18 12:34:00,65.8,52.9,25.16,ESE,106,5.8,5.8,63,0.00,,---,0.00,VWS V14.01,2013-07-18 17:34:00,
2013-07-18 12:36:00,65.8,52.9,25.16,SSE,151,5.8,5.8,63,0.00,,---,0.00,VWS V14.01,2013-07-18 17:36:00,
2013-07-18 12:37:00,65.8,52.9,25.16,ESE,119,8.1,8.1,63,0.00,,---,0.00,VWS V14.01,2013-07-18 17:37:00,
2013-07-18 12:38:00,65.8,52.9,25.16,SSE,163,6.3,6.3,63,0.00,,---,0.00,VWS V14.01,2013-07-18 17:38:00,
2013-07-18 12:39:00,65.8,52.9,25.16,SSE,163,6.3,6.3,63,0.00,,---,0.00,VWS V14.01,2013-07-18 17:39:00,
2013-07-18 12:41:00,66.6,51.8,25.16,SSE,163,6.3,6.3,59,0.00,,---,0.00,VWS V14.01,2013-07-18 17:41:00,
2013-07-18 12:42:00,66.6,51.8,25.16,SSE,163,6.3,6.3,59,0.00,,---,0.00,VWS V14.01,2013-07-18 17:42:00,
2013-07-18 12:43:00,66.6,51.8,25.16,SSE,163,6.3,6.3,59,0.00,,---,0.00,VWS V14.01,2013-07-18 17:43:00,
2013-07-18 12:44:00,66.6,51.8,25.16,SSE,163,6.3,6.3,59,0.00,,---,0.00,VWS V14.01,2013-07-18 17:44:00,
2013-07-18 12:46:00,66.6,51.8,25.16,SE,143,8.3,11.0,59,0.00,,---,0.00,VWS V14.01,2013-07-18 17:46:00,
2013-07-18 12:47:00,66.6,51.8,25.16,SE,143,8.3,11.0,59,0.00,,---,0.00,VWS V14.01,2013-07-18 17:47:00,
2013-07-18 12:49:00,66.2,51.5,25.16,SE,143,8.3,8.3,59,0.00,,---,0.00,VWS V14.01,2013-07-18 17:49:00,
2013-07-18 12:52:00,66.2,51.5,25.16,SE,141,7.2,8.7,59,0.00,,---,0.00,VWS V14.01,2013-07-18 17:52:00,
2013-07-18 12:54:00,66.2,51.5,25.16,SSE,152,8.1,8.1,59,0.00,,---,0.00,VWS V14.01,2013-07-18 17:54:00,
2013-07-18 12:57:00,66.2,51.5,25.16,SSE,147,5.8,8.7,59,0.00,,---,0.00,VWS V14.01,2013-07-18 17:57:00,
2013-07-18 12:58:00,65.8,49.7,25.16,SSE,147,5.8,5.8,56,0.00,,---,0.00,VWS V14.01,2013-07-18 17:58:00,
2013-07-18 12:59:00,65.8,49.7,25.16,SSE,160,5.8,5.8,56,0.00,,---,0.00,VWS V14.01,2013-07-18 17:59:00,
2013-07-18 13:00:00,65.8,49.7,25.16,SSE,160,5.8,5.8,56,0.00,,---,0.00,VWS V14.01,2013-07-18 18:00:00,
2013-07-18 13:02:00,65.8,49.7,25.16,SSE,153,8.7,8.7,56,0.00,,---,0.00,VWS V14.01,2013-07-18 18:02:00,
2013-07-18 13:03:00,65.8,49.7,25.16,SSE,161,6.3,8.7,56,0.00,,---,0.00,VWS V14.01,2013-07-18 18:03:00,
2013-07-18 13:04:00,65.8,49.7,25.16,SSE,161,6.3,6.3,56,0.00,,---,0.00,VWS V14.01,2013-07-18 18:04:00,
2013-07-18 13:05:00,65.8,49.7,25.16,SSE,161,6.3,6.3,56,0.00,,---,0.00,VWS V14.01,2013-07-18 18:05:00,
2013-07-18 13:07:00,66.0,47.4,25.16,SSE,161,6.3,6.3,51,0.00,,---,0.00,VWS V14.01,2013-07-18 18:07:00,
2013-07-18 13:08:00,66.0,47.4,25.16,SSE,156,10.1,10.1,51,0.00,,---,0.00,VWS V14.01,2013-07-18 18:08:00,
2013-07-18 13:10:00,66.0,47.4,25.16,SSE,168,11.0,11.0,51,0.00,,---,0.00,VWS V14.01,2013-07-18 18:10:00,
2013-07-18 13:13:00,66.0,47.4,25.16,SE,140,7.6,8.7,51,0.00,,---,0.00,VWS V14.01,2013-07-18 18:13:00,
2013-07-18 13:15:00,66.4,46.7,25.16,SE,140,7.6,7.6,49,0.00,,---,0.00,VWS V14.01,2013-07-18 18:15:00,
2013-07-18 13:16:00,66.4,46.7,25.16,SE,140,7.6,7.6,49,0.00,,---,0.00,VWS V14.01,2013-07-18 18:16:00,
2013-07-18 13:18:00,66.4,47.7,25.16,SSE,162,7.6,7.6,51,0.00,,---,0.00,VWS V14.01,2013-07-18 18:18:00,
2013-07-18 13:20:00,66.4,47.7,25.16,South,189,6.3,6.3,51,0.00,,---,0.00,VWS V14.01,2013-07-18 18:20:00,
2013-07-18 13:21:00,66.4,47.7,25.16,South,189,6.3,6.3,51,0.00,,---,0.00,VWS V14.01,2013-07-18 18:21:00,
2013-07-18 13:23:00,66.2,48.1,25.16,South,189,6.3,6.3,52,0.00,,---,0.00,VWS V14.01,2013-07-18 18:23:00,
2013-07-18 13:24:00,66.2,48.1,25.16,South,189,6.3,6.3,52,0.00,,---,0.00,VWS V14.01,2013-07-18 18:24:00,
2013-07-18 13:26:00,66.2,48.1,25.16,South,179,8.3,8.3,52,0.00,,---,0.00,VWS V14.01,2013-07-18 18:26:00,
2013-07-18 13:28:00,66.2,48.1,25.16,South,185,8.3,8.3,52,0.00,,---,0.00,VWS V14.01,2013-07-18 18:28:00,
2013-07-18 13:29:00,66.2,48.1,25.16,South,185,8.3,8.3,52,0.00,,---,0.00,VWS V14.01,2013-07-18 18:29:00,
2013-07-18 13:31:00,66.2,48.1,25.16,South,179,6.3,6.3,52,0.00,,---,0.00,VWS V14.01,2013-07-18 18:31:00,
2013-07-18 13:34:00,66.9,47.2,25.16,South,179,6.3,6.3,49,0.00,,---,0.00,VWS V14.01,2013-07-18 18:34:00,
2013-07-18 13:36:00,67.3,48.0,25.16,South,179,6.3,6.3,50,0.00,,---,0.00,VWS V14.01,2013-07-18 18:36:00,
2013-07-18 13:39:00,67.3,48.0,25.16,SSE,153,6.3,6.3,50,0.00,,---,0.00,VWS V14.01,2013-07-18 18:39:00,
2013-07-18 13:40:00,67.6,47.8,25.16,SSE,153,6.3,6.3,49,0.00,,---,0.00,VWS V14.01,2013-07-18 18:40:00,
2013-07-18 13:41:00,67.6,47.8,25.16,SE,127,8.3,8.3,49,0.00,,---,0.00,VWS V14.01,2013-07-18 18:41:00,
2013-07-18 13:44:00,67.8,47.4,25.16,South,173,8.1,8.1,48,0.00,,---,0.00,VWS V14.01,2013-07-18 18:44:00,
2013-07-18 13:45:00,67.8,47.4,25.16,SE,143,8.1,8.1,48,0.00,,---,0.00,VWS V14.01,2013-07-18 18:45:00,
2013-07-18 13:46:00,67.8,47.4,25.16,SE,143,8.1,8.1,48,0.00,,---,0.00,VWS V14.01,2013-07-18 18:46:00,
2013-07-18 13:49:00,67.8,47.4,25.16,SE,143,8.1,8.1,48,0.00,,---,0.00,VWS V14.01,2013-07-18 18:49:00,
2013-07-18 13:50:00,67.8,47.4,25.16,SE,143,8.1,8.1,48,0.00,,---,0.00,VWS V14.01,2013-07-18 18:50:00,
2013-07-18 13:51:00,67.8,47.4,25.16,SE,143,8.1,8.1,48,0.00,,---,0.00,VWS V14.01,2013-07-18 18:51:00,
2013-07-18 13:55:00,67.1,46.8,25.16,South,171,8.1,8.1,48,0.00,,---,0.00,VWS V14.01,2013-07-18 18:55:00,
2013-07-18 13:56:00,67.1,46.8,25.16,South,181,5.4,5.4,48,0.00,,---,0.00,VWS V14.01,2013-07-18 18:56:00,
2013-07-18 14:00:00,66.9,47.7,25.16,SSE,151,5.8,5.8,50,0.00,,---,0.00,VWS V14.01,2013-07-18 19:00:00,
2013-07-18 14:01:00,66.9,47.7,25.16,SSE,151,5.8,5.8,50,0.00,,---,0.00,VWS V14.01,2013-07-18 19:01:00,
2013-07-18 14:05:00,67.3,48.5,25.16,SSE,159,7.6,8.7,51,0.00,,---,0.00,VWS V14.01,2013-07-18 19:05:00,
2013-07-18 14:06:00,67.5,48.7,25.16,SSE,159,7.6,8.7,51,0.00,,---,0.00,VWS V14.01,2013-07-18 19:06:00,
2013-07-18 14:07:00,67.5,48.7,25.16,SSE,159,7.6,7.6,51,0.00,,---,0.00,VWS V14.01,2013-07-18 19:07:00,
2013-07-18 14:10:00,67.6,47.3,25.16,SSW,202,8.3,8.3,48,0.00,,---,0.00,VWS V14.01,2013-07-18 19:10:00,
2013-07-18 14:11:00,67.6,47.3,25.16,SSW,202,8.3,8.3,48,0.00,,---,0.00,VWS V14.01,2013-07-18 19:11:00,
2013-07-18 14:12:00,67.6,47.3,25.16,SSW,202,8.3,8.3,48,0.00,,---,0.00,VWS V14.01,2013-07-18 19:12:00,
2013-07-18 14:15:00,68.4,46.8,25.16,South,176,5.8,5.8,46,0.00,,---,0.00,VWS V14.01,2013-07-18 19:15:00,
2013-07-18 14:16:00,68.4,46.8,25.16,South,176,8.1,8.1,46,0.00,,---,0.00,VWS V14.01,2013-07-18 19:16:00,
2013-07-18 14:17:00,68.4,46.2,25.16,South,176,8.1,8.1,45,0.00,,---,0.00,VWS V14.01,2013-07-18 19:17:00,
2013-07-18 14:21:00,68.4,46.8,25.16,South,186,5.8,5.8,46,0.00,,---,0.00,VWS V14.01,2013-07-18 19:21:00,
2013-07-18 14:22:00,68.4,46.8,25.16,SSE,154,11.0,11.0,46,0.00,,---,0.00,VWS V14.01,2013-07-18 19:22:00,
2013-07-18 14:26:00,68.4,46.2,25.16,SSW,206,6.3,6.3,45,0.00,,---,0.00,VWS V14.01,2013-07-18 19:26:00,
2013-07-18 14:27:00,68.4,46.2,25.16,SSW,206,6.3,6.3,45,0.00,,---,0.00,VWS V14.01,2013-07-18 19:27:00,
2013-07-18 14:31:00,68.5,45.8,25.16,South,171,8.3,8.3,44,0.00,,---,0.00,VWS V14.01,2013-07-18 19:31:00,
2013-07-18 14:32:00,68.7,46.5,25.16,SSE,159,7.6,8.3,45,0.00,,---,0.00,VWS V14.01,2013-07-18 19:32:00,
2013-07-18 14:36:00,68.7,46.5,25.13,SSE,164,10.5,10.5,45,0.00,,---,0.00,VWS V14.01,2013-07-18 19:36:00,
2013-07-18 14:37:00,68.7,46.5,25.13,SSE,164,10.5,10.5,45,0.00,,---,0.00,VWS V14.01,2013-07-18 19:37:00,
2013-07-18 14:41:00,67.6,46.7,25.13,SSE,164,10.5,10.5,47,0.00,,---,0.00,VWS V14.01,2013-07-18 19:41:00,
2013-07-18 14:42:00,67.8,46.9,25.13,SSE,164,10.5,10.5,47,0.00,,---,0.00,VWS V14.01,2013-07-18 19:42:00,
2013-07-18 14:43:00,67.8,46.9,25.13,SSE,164,10.5,10.5,47,0.00,,---,0.00,VWS V14.01,2013-07-18 19:43:00,
2013-07-18 14:46:00,67.8,47.4,25.13,SE,146,8.1,8.1,48,0.00,,---,0.00,VWS V14.01,2013-07-18 19:46:00,
2013-07-18 14:47:00,67.8,47.4,25.13,SE,131,8.1,8.1,48,0.00,,---,0.00,VWS V14.01,2013-07-18 19:47:00,
2013-07-18 14:48:00,67.8,47.4,25.13,SE,131,8.1,8.1,48,0.00,,---,0.00,VWS V14.01,2013-07-18 19:48:00,
2013-07-18 14:52:00,68.5,47.0,25.13,SSE,159,8.1,8.1,46,0.00,,---,0.00,VWS V14.01,2013-07-18 19:52:00,
2013-07-18 14:53:00,68.5,47.0,25.13,SSE,159,8.1,8.1,46,0.00,,---,0.00,VWS V14.01,2013-07-18 19:53:00,
2013-07-18 14:58:00,70.0,46.5,25.13,SSE,166,8.1,8.1,43,0.00,,---,0.00,VWS V14.01,2013-07-18 19:58:00,
2013-07-18 14:59:00,70.0,46.5,25.13,South,175,7.6,7.6,43,0.00,,---,0.00,VWS V14.01,2013-07-18 19:59:00,
2013-07-18 15:03:00,70.0,46.5,25.13,SSE,164,6.3,7.6,43,0.00,,---,0.00,VWS V14.01,2013-07-18 20:03:00,
2013-07-18 15:04:00,70.0,46.5,25.13,SSE,164,6.3,6.3,43,0.00,,---,0.00,VWS V14.01,2013-07-18 20:04:00,
2013-07-18 15:08:00,69.8,45.7,25.13,SSE,164,6.3,6.3,42,0.00,,---,0.00,VWS V14.01,2013-07-18 20:08:00,
2013-07-18 15:09:00,70.0,47.1,25.13,SSE,160,10.1,10.1,44,0.00,,---,0.00,VWS V14.01,2013-07-18 20:09:00,
2013-07-18 15:10:00,70.0,47.1,25.13,SSE,160,10.1,10.1,44,0.00,,---,0.00,VWS V14.01,2013-07-18 20:10:00,
2013-07-18 15:13:00,70.0,47.1,25.13,SE,136,8.7,8.7,44,0.00,,---,0.00,VWS V14.01,2013-07-18 20:13:00,
2013-07-18 15:14:00,70.0,47.1,25.13,SE,136,8.7,8.7,44,0.00,,---,0.00,VWS V14.01,2013-07-18 20:14:00,
2013-07-18 15:15:00,69.4,46.6,25.13,SE,136,8.7,8.7,44,0.00,,---,0.00,VWS V14.01,2013-07-18 20:15:00,
2013-07-18 15:16:00,69.4,46.6,25.13,SE,136,8.7,8.7,44,0.00,,---,0.00,VWS V14.01,2013-07-18 20:16:00,
2013-07-18 15:18:00,69.1,45.0,25.13,SSE,157,8.3,8.3,42,0.00,,---,0.00,VWS V14.01,2013-07-18 20:18:00,
2013-07-18 15:19:00,69.1,46.3,25.13,SE,136,7.6,8.3,44,0.00,,---,0.00,VWS V14.01,2013-07-18 20:19:00,
2013-07-18 15:20:00,69.1,46.3,25.13,SE,136,7.6,7.6,44,0.00,,---,0.00,VWS V14.01,2013-07-18 20:20:00,
2013-07-18 15:21:00,69.1,46.3,25.13,SE,136,7.6,7.6,44,0.00,,---,0.00,VWS V14.01,2013-07-18 20:21:00,
2013-07-18 15:23:00,69.6,46.2,25.13,SSE,156,8.3,8.3,43,0.00,,---,0.00,VWS V14.01,2013-07-18 20:23:00,
2013-07-18 15:25:00,69.6,46.2,25.13,SSE,156,8.3,8.3,43,0.00,,---,0.00,VWS V14.01,2013-07-18 20:25:00,
2013-07-18 15:26:00,70.0,45.9,25.13,SSE,163,8.3,8.3,42,0.00,,---,0.00,VWS V14.01,2013-07-18 20:26:00,
2013-07-18 15:27:00,70.0,45.9,25.13,SSE,163,8.3,8.3,42,0.00,,---,0.00,VWS V14.01,2013-07-18 20:27:00,
2013-07-18 15:28:00,70.0,45.9,25.13,SSE,163,8.3,8.3,42,0.00,,---,0.00,VWS V14.01,2013-07-18 20:28:00,
2013-07-18 15:29:00,70.0,45.9,25.13,SSE,163,8.3,8.3,42,0.00,,---,0.00,VWS V14.01,2013-07-18 20:29:00,
2013-07-18 15:30:00,70.0,45.9,25.13,ESE,117,8.3,8.3,42,0.00,,---,0.00,VWS V14.01,2013-07-18 20:30:00,
2013-07-18 15:31:00,70.0,45.9,25.13,ESE,117,8.3,8.3,42,0.00,,---,0.00,VWS V14.01,2013-07-18 20:31:00,
2013-07-18 15:32:00,69.1,46.3,25.13,ESE,117,8.3,8.3,44,0.00,,---,0.00,VWS V14.01,2013-07-18 20:32:00,
2013-07-18 15:34:00,69.1,46.3,25.13,ESE,117,8.3,8.3,44,0.00,,---,0.00,VWS V14.01,2013-07-18 20:34:00,
2013-07-18 15:35:00,68.9,46.7,25.13,ESE,117,8.3,8.3,45,0.00,,---,0.00,VWS V14.01,2013-07-18 20:35:00,
2013-07-18 15:36:00,68.9,46.1,25.13,ESE,117,8.3,8.3,44,0.00,,---,0.00,VWS V14.01,2013-07-18 20:36:00,
2013-07-18 15:37:00,68.9,46.1,25.13,ESE,117,8.3,8.3,44,0.00,,---,0.00,VWS V14.01,2013-07-18 20:37:00,
2013-07-18 15:38:00,68.9,46.1,25.13,SSE,151,8.3,10.1,44,0.00,,---,0.00,VWS V14.01,2013-07-18 20:38:00,
2013-07-18 15:40:00,68.9,46.1,25.13,SSE,151,8.3,8.3,44,0.00,,---,0.00,VWS V14.01,2013-07-18 20:40:00,
2013-07-18 15:42:00,69.3,46.4,25.13,ESE,123,11.0,11.0,44,0.00,,---,0.00,VWS V14.01,2013-07-18 20:42:00,
2013-07-18 15:45:00,69.4,47.2,25.13,SSE,152,5.4,5.4,45,0.00,,---,0.00,VWS V14.01,2013-07-18 20:45:00,
2013-07-18 15:46:00,69.4,47.2,25.13,SSE,152,5.4,5.4,45,0.00,,---,0.00,VWS V14.01,2013-07-18 20:46:00,
2013-07-18 15:47:00,69.4,47.2,25.13,SSE,152,5.4,5.4,45,0.00,,---,0.00,VWS V14.01,2013-07-18 20:47:00,
2013-07-18 15:50:00,69.8,45.7,25.13,SE,128,10.1,10.1,42,0.00,,---,0.00,VWS V14.01,2013-07-18 20:50:00,
2013-07-18 15:51:00,69.8,46.3,25.13,SE,128,10.1,10.1,43,0.00,,---,0.00,VWS V14.01,2013-07-18 20:51:00,
2013-07-18 15:53:00,69.8,46.3,25.13,ESE,120,6.3,6.3,43,0.00,,---,0.00,VWS V14.01,2013-07-18 20:53:00,
2013-07-18 15:56:00,69.8,46.3,25.13,South,191,5.4,9.6,43,0.00,,---,0.00,VWS V14.01,2013-07-18 20:56:00,
2013-07-18 15:57:00,69.8,46.3,25.13,South,191,5.4,5.4,43,0.00,,---,0.00,VWS V14.01,2013-07-18 20:57:00,
2013-07-18 15:58:00,69.8,46.3,25.13,South,191,5.4,5.4,43,0.00,,---,0.00,VWS V14.01,2013-07-18 20:58:00,
2013-07-18 15:59:00,70.0,46.5,25.13,South,191,5.4,5.4,43,0.00,,---,0.00,VWS V14.01,2013-07-18 20:59:00,
2013-07-18 16:01:00,69.8,45.7,25.13,SSE,155,5.4,8.1,42,0.00,,---,0.00,VWS V14.01,2013-07-18 21:01:00,
2013-07-18 16:02:00,69.8,45.7,25.13,SSE,155,5.4,5.4,42,0.00,,---,0.00,VWS V14.01,2013-07-18 21:02:00,
2013-07-18 16:03:00,69.8,45.7,25.13,South,178,8.7,8.7,42,0.00,,---,0.00,VWS V14.01,2013-07-18 21:03:00,
2013-07-18 16:04:00,69.8,45.7,25.13,South,178,8.7,8.7,42,0.00,,---,0.00,VWS V14.01,2013-07-18 21:04:00,
2013-07-18 16:06:00,70.0,45.2,25.13,SE,130,11.0,11.0,41,0.00,,---,0.00,VWS V14.01,2013-07-18 21:06:00,
2013-07-18 16:07:00,70.0,45.2,25.13,SE,130,8.7,8.7,41,0.00,,---,0.00,VWS V14.01,2013-07-18 21:07:00,
2013-07-18 16:09:00,70.0,45.2,25.13,SE,130,8.7,8.7,41,0.00,,---,0.00,VWS V14.01,2013-07-18 21:09:00,
2013-07-18 16:11:00,69.8,45.7,25.13,SSE,163,8.7,8.7,42,0.00,,---,0.00,VWS V14.01,2013-07-18 21:11:00,
2013-07-18 16:12:00,69.8,45.7,25.13,SSE,163,8.7,8.7,42,0.00,,---,0.00,VWS V14.01,2013-07-18 21:12:00,
2013-07-18 16:14:00,69.8,45.7,25.13,SE,125,8.1,8.7,42,0.00,,---,0.00,VWS V14.01,2013-07-18 21:14:00,
2013-07-18 16:15:00,69.6,46.2,25.13,SE,125,8.1,8.1,43,0.00,,---,0.00,VWS V14.01,2013-07-18 21:15:00,
2013-07-18 16:16:00,69.6,46.2,25.13,SE,146,7.6,8.1,43,0.00,,---,0.00,VWS V14.01,2013-07-18 21:16:00,
2013-07-18 16:18:00,69.6,46.2,25.13,SE,145,8.1,8.1,43,0.00,,---,0.00,VWS V14.01,2013-07-18 21:18:00,
2013-07-18 16:20:00,69.6,46.2,25.13,SSE,163,7.6,7.6,43,0.00,,---,0.00,VWS V14.01,2013-07-18 21:20:00,
2013-07-18 16:21:00,69.6,46.2,25.13,SSE,155,11.0,11.0,43,0.00,,---,0.00,VWS V14.01,2013-07-18 21:21:00,
2013-07-18 16:22:00,69.6,46.2,25.13,SSE,155,11.0,11.0,43,0.00,,---,0.00,VWS V14.01,2013-07-18 21:22:00,
2013-07-18 16:23:00,69.6,46.2,25.13,SE,130,8.3,11.0,43,0.00,,---,0.00,VWS V14.01,2013-07-18 21:23:00,
2013-07-18 16:25:00,69.4,46.0,25.13,SE,130,8.3,8.3,43,0.00,,---,0.00,VWS V14.01,2013-07-18 21:25:00,
2013-07-18 16:26:00,69.6,46.2,25.13,SE,138,6.3,6.3,43,0.00,,---,0.00,VWS V14.01,2013-07-18 21:26:00,
2013-07-18 16:27:00,69.6,46.2,25.13,SE,138,10.5,10.5,43,0.00,,---,0.00,VWS V14.01,2013-07-18 21:27:00,
2013-07-18 16:28:00,69.6,46.2,25.13,SE,138,10.5,10.5,43,0.00,,---,0.00,VWS V14.01,2013-07-18 21:28:00,
2013-07-18 16:30:00,69.4,45.4,25.13,SE,144,6.3,6.3,42,0.00,,---,0.00,VWS V14.01,2013-07-18 21:30:00,
2013-07-18 16:31:00,69.4,45.4,25.13,SE,133,8.1,9.2,42,0.00,,---,0.00,VWS V14.01,2013-07-18 21:31:00,
2013-07-18 16:32:00,69.4,45.4,25.13,SE,137,6.3,6.3,42,0.00,,---,0.00,VWS V14.01,2013-07-18 21:32:00,
2013-07-18 16:33:00,69.4,45.4,25.13,SE,137,6.3,6.3,42,0.00,,---,0.00,VWS V14.01,2013-07-18 21:33:00,
2013-07-18 16:34:00,69.3,45.2,25.13,SE,137,6.3,6.3,42,0.00,,---,0.00,VWS V14.01,2013-07-18 21:34:00,
2013-07-18 16:35:00,69.3,45.2,25.13,SE,137,6.3,6.3,42,0.00,,---,0.00,VWS V14.01,2013-07-18 21:35:00,
2013-07-18 16:36:00,69.3,45.2,25.13,South,188,5.8,6.7,42,0.00,,---,0.00,VWS V14.01,2013-07-18 21:36:00,
2013-07-18 16:38:00,69.3,45.2,25.13,SSE,158,5.4,5.8,42,0.00,,---,0.00,VWS V14.01,2013-07-18 21:38:00,
2013-07-18 16:39:00,69.3,45.2,25.13,SSE,162,6.3,6.3,42,0.00,,---,0.00,VWS V14.01,2013-07-18 21:39:00,
2013-07-18 16:41:00,70.0,44.6,25.13,SE,133,5.4,5.4,40,0.00,,---,0.00,VWS V14.01,2013-07-18 21:41:00,
2013-07-18 16:43:00,70.0,44.6,25.13,SE,133,5.4,5.4,40,0.00,,---,0.00,VWS V14.01,2013-07-18 21:43:00,
2013-07-18 16:44:00,70.0,44.6,25.13,SE,133,5.4,5.4,40,0.00,,---,0.00,VWS V14.01,2013-07-18 21:44:00,
2013-07-18 16:46:00,70.0,44.6,25.13,SSE,167,8.3,8.3,40,0.00,,---,0.00,VWS V14.01,2013-07-18 21:46:00,
2013-07-18 16:47:00,70.0,44.6,25.13,SSE,167,8.3,8.3,40,0.00,,---,0.00,VWS V14.01,2013-07-18 21:47:00,
2013-07-18 16:48:00,70.0,44.6,25.13,SE,127,6.3,6.3,40,0.00,,---,0.00,VWS V14.01,2013-07-18 21:48:00,
2013-07-18 16:49:00,70.0,44.6,25.13,SSE,150,6.7,7.6,40,0.00,,---,0.00,VWS V14.01,2013-07-18 21:49:00,
2013-07-18 16:50:00,70.0,45.2,25.13,SSE,150,6.7,6.7,41,0.00,,---,0.00,VWS V14.01,2013-07-18 21:50:00,
2013-07-18 16:52:00,70.0,44.6,25.13,SSE,150,6.7,6.7,40,0.00,,---,0.00,VWS V14.01,2013-07-18 21:52:00,
2013-07-18 16:55:00,70.0,44.6,25.13,SE,135,5.4,5.4,40,0.00,,---,0.00,VWS V14.01,2013-07-18 21:55:00,
2013-07-18 16:56:00,70.0,44.6,25.13,SE,135,5.4,5.4,40,0.00,,---,0.00,VWS V14.01,2013-07-18 21:56:00,
2013-07-18 16:57:00,70.0,44.6,25.13,SE,131,6.3,6.3,40,0.00,,---,0.00,VWS V14.01,2013-07-18 21:57:00,
2013-07-18 17:00:00,69.8,45.1,25.13,SSE,159,5.4,5.4,41,0.00,,---,0.00,VWS V14.01,2013-07-18 22:00:00,
2013-07-18 17:01:00,69.8,45.1,25.13,SSE,159,5.4,5.4,41,0.00,,---,0.00,VWS V14.01,2013-07-18 22:01:00,
2013-07-18 17:02:00,69.8,45.1,25.13,SSE,159,5.4,5.4,41,0.00,,---,0.00,VWS V14.01,2013-07-18 22:02:00,
2013-07-18 17:03:00,69.8,45.1,25.13,SSE,164,6.3,6.3,41,0.00,,---,0.00,VWS V14.01,2013-07-18 22:03:00,
2013-07-18 17:06:00,69.8,45.1,25.13,SSE,163,6.3,6.3,41,0.00,,---,0.00,VWS V14.01,2013-07-18 22:06:00,
2013-07-18 17:07:00,69.8,45.1,25.13,SSE,149,9.6,9.6,41,0.00,,---,0.00,VWS V14.01,2013-07-18 22:07:00,
2013-07-18 17:08:00,69.8,45.1,25.13,SSE,149,9.6,9.6,41,0.00,,---,0.00,VWS V14.01,2013-07-18 22:08:00,
2013-07-18 17:11:00,69.4,45.4,25.13,SSE,165,8.1,8.1,42,0.00,,---,0.00,VWS V14.01,2013-07-18 22:11:00,
2013-07-18 17:12:00,69.4,45.4,25.13,SSE,165,8.1,8.1,42,0.00,,---,0.00,VWS V14.01,2013-07-18 22:12:00,
2013-07-18 17:14:00,69.4,45.4,25.13,South,187,5.4,8.1,42,0.00,,---,0.00,VWS V14.01,2013-07-18 22:14:00,
2013-07-18 17:16:00,69.8,45.1,25.13,SE,127,5.4,5.4,41,0.00,,---,0.00,VWS V14.01,2013-07-18 22:16:00,
2013-07-18 17:17:00,69.8,45.1,25.13,SE,127,5.4,5.4,41,0.00,,---,0.00,VWS V14.01,2013-07-18 22:17:00,
2013-07-18 17:18:00,70.0,44.6,25.13,SE,127,5.4,5.4,40,0.00,,---,0.00,VWS V14.01,2013-07-18 22:18:00,
2013-07-18 17:19:00,70.0,44.6,25.13,SE,146,8.1,8.1,40,0.00,,---,0.00,VWS V14.01,2013-07-18 22:19:00,
2013-07-18 17:23:00,70.0,44.6,25.13,SE,133,8.1,8.1,40,0.00,,---,0.00,VWS V14.01,2013-07-18 22:23:00,
2013-07-18 17:24:00,70.0,44.6,25.13,SE,133,8.1,8.1,40,0.00,,---,0.00,VWS V14.01,2013-07-18 22:24:00,
2013-07-18 17:25:00,70.0,44.6,25.13,SE,133,8.1,8.1,40,0.00,,---,0.00,VWS V14.01,2013-07-18 22:25:00,
2013-07-18 17:28:00,70.0,44.6,25.13,SE,130,5.8,5.8,40,0.00,,---,0.00,VWS V14.01,2013-07-18 22:28:00,
2013-07-18 17:29:00,70.0,44.6,25.13,SE,130,5.8,5.8,40,0.00,,---,0.00,VWS V14.01,2013-07-18 22:29:00,
2013-07-18 17:30:00,70.0,44.6,25.13,South,174,7.6,8.7,40,0.00,,---,0.00,VWS V14.01,2013-07-18 22:30:00,
2013-07-18 17:31:00,70.0,44.6,25.13,SSE,152,7.6,7.6,40,0.00,,---,0.00,VWS V14.01,2013-07-18 22:31:00,
2013-07-18 17:33:00,69.6,43.6,25.13,SE,129,5.4,6.3,39,0.00,,---,0.00,VWS V14.01,2013-07-18 22:33:00,
2013-07-18 17:34:00,69.6,43.6,25.13,SE,129,5.4,5.4,39,0.00,,---,0.00,VWS V14.01,2013-07-18 22:34:00,
2013-07-18 17:35:00,69.6,43.6,25.13,SE,140,6.7,6.7,39,0.00,,---,0.00,VWS V14.01,2013-07-18 22:35:00,
2013-07-18 17:36:00,69.6,43.6,25.13,South,170,6.3,6.7,39,0.00,,---,0.00,VWS V14.01,2013-07-18 22:36:00,
2013-07-18 17:39:00,70.0,43.9,25.10,South,170,6.3,6.3,39,0.00,,---,0.00,VWS V14.01,2013-07-18 22:39:00,
2013-07-18 17:41:00,70.0,43.9,25.10,South,171,8.1,8.1,39,0.00,,---,0.00,VWS V14.01,2013-07-18 22:41:00,
2013-07-18 17:44:00,70.0,42.5,25.10,SE,144,5.8,5.8,37,0.00,,---,0.00,VWS V14.01,2013-07-18 22:44:00,
2013-07-18 17:46:00,70.0,42.5,25.10,SSE,153,8.3,8.3,37,0.00,,---,0.00,VWS V14.01,2013-07-18 22:46:00,
2013-07-18 17:49:00,69.8,42.4,25.10,SE,140,5.4,5.4,37,0.00,,---,0.00,VWS V14.01,2013-07-18 22:49:00,
2013-07-18 17:51:00,69.8,42.4,25.10,SE,140,5.4,5.4,37,0.00,,---,0.00,VWS V14.01,2013-07-18 22:51:00,
2013-07-18 17:54:00,69.8,42.4,25.10,SSE,154,8.3,8.3,37,0.00,,---,0.00,VWS V14.01,2013-07-18 22:54:00,
2013-07-18 17:55:00,69.1,43.8,25.10,South,170,8.1,8.3,40,0.00,,---,0.00,VWS V14.01,2013-07-18 22:55:00,
2013-07-18 17:56:00,69.1,43.8,25.10,SE,134,6.3,6.3,40,0.00,,---,0.00,VWS V14.01,2013-07-18 22:56:00,
2013-07-18 18:00:00,68.9,44.2,25.10,South,169,6.7,6.7,41,0.00,,---,0.00,VWS V14.01,2013-07-18 23:00:00,
2013-07-18 18:01:00,68.9,44.2,25.10,SE,138,7.6,7.6,41,0.00,,---,0.00,VWS V14.01,2013-07-18 23:01:00,
2013-07-18 18:02:00,68.9,44.2,25.10,SE,138,7.6,7.6,41,0.00,,---,0.00,VWS V14.01,2013-07-18 23:02:00,
2013-07-18 18:05:00,68.5,44.6,25.10,SSE,157,6.3,6.3,42,0.00,,---,0.00,VWS V14.01,2013-07-18 23:05:00,
2013-07-18 18:06:00,68.5,44.6,25.10,SE,146,5.8,5.8,42,0.00,,---,0.00,VWS V14.01,2013-07-18 23:06:00,
2013-07-18 18:07:00,68.5,44.6,25.10,SE,146,5.8,5.8,42,0.00,,---,0.00,VWS V14.01,2013-07-18 23:07:00,
2013-07-18 18:10:00,68.7,44.7,25.10,SE,137,8.1,8.1,42,0.00,,---,0.00,VWS V14.01,2013-07-18 23:10:00,
2013-07-18 18:11:00,68.7,44.7,25.10,SSE,147,5.4,8.1,42,0.00,,---,0.00,VWS V14.01,2013-07-18 23:11:00,
2013-07-18 18:12:00,68.7,44.7,25.10,SSE,147,5.4,5.4,42,0.00,,---,0.00,VWS V14.01,2013-07-18 23:12:00,
2013-07-18 18:15:00,68.7,44.7,25.10,South,169,5.4,5.4,42,0.00,,---,0.00,VWS V14.01,2013-07-18 23:15:00,
2013-07-18 18:16:00,68.7,44.7,25.10,SE,138,8.3,8.3,42,0.00,,---,0.00,VWS V14.01,2013-07-18 23:16:00,
2013-07-18 18:17:00,68.7,44.7,25.10,SE,138,8.3,8.3,42,0.00,,---,0.00,VWS V14.01,2013-07-18 23:17:00,
2013-07-18 18:20:00,68.7,44.7,25.10,SE,138,8.3,8.3,42,0.00,,---,0.00,VWS V14.01,2013-07-18 23:20:00,
2013-07-18 18:22:00,68.7,44.7,25.10,SE,134,5.4,8.3,42,0.00,,---,0.00,VWS V14.01,2013-07-18 23:22:00,
2013-07-18 18:23:00,68.7,44.7,25.10,SE,126,6.3,6.3,42,0.00,,---,0.00,VWS V14.01,2013-07-18 23:23:00,
2013-07-18 18:25:00,68.5,44.6,25.10,SE,124,5.4,5.4,42,0.00,,---,0.00,VWS V14.01,2013-07-18 23:25:00,
2013-07-18 18:27:00,68.7,45.3,25.10,South,170,6.3,6.3,43,0.00,,---,0.00,VWS V14.01,2013-07-18 23:27:00,
2013-07-18 18:28:00,68.7,45.3,25.10,SSE,163,5.4,6.3,43,0.00,,---,0.00,VWS V14.01,2013-07-18 23:28:00,
2013-07-18 18:29:00,68.7,45.3,25.10,SSE,163,5.4,6.3,43,0.00,,---,0.00,VWS V14.01,2013-07-18 23:29:00,
2013-07-18 18:30:00,68.7,45.3,25.10,ESE,110,5.4,5.4,43,0.00,,---,0.00,VWS V14.01,2013-07-18 23:30:00,
2013-07-18 18:32:00,68.7,45.3,25.10,ESE,121,5.8,5.8,43,0.00,,---,0.00,VWS V14.01,2013-07-18 23:32:00,
2013-07-18 18:33:00,68.7,45.3,25.10,ESE,121,5.8,5.8,43,0.00,,---,0.00,VWS V14.01,2013-07-18 23:33:00,
2013-07-18 18:34:00,68.7,44.1,25.10,ESE,121,5.8,5.8,41,0.00,,---,0.00,VWS V14.01,2013-07-18 23:34:00,
2013-07-18 18:35:00,68.5,43.9,25.10,SE,136,4.0,5.8,41,0.00,,---,0.00,VWS V14.01,2013-07-18 23:35:00,
2013-07-18 18:37:00,68.5,43.9,25.10,SE,129,7.2,7.2,41,0.00,,---,0.00,VWS V14.01,2013-07-18 23:37:00,
2013-07-18 18:38:00,68.5,43.9,25.10,SE,124,5.8,6.3,41,0.00,,---,0.00,VWS V14.01,2013-07-18 23:38:00,
2013-07-18 18:40:00,68.5,43.9,25.10,SE,145,8.1,8.1,41,0.00,,---,0.00,VWS V14.01,2013-07-18 23:40:00,
2013-07-18 18:42:00,68.5,43.9,25.10,SE,138,7.6,7.6,41,0.00,,---,0.00,VWS V14.01,2013-07-18 23:42:00,
2013-07-18 18:43:00,68.5,43.9,25.10,SE,138,7.6,7.6,41,0.00,,---,0.00,VWS V14.01,2013-07-18 23:43:00,
2013-07-18 18:45:00,68.5,43.3,25.10,SE,143,5.8,5.8,40,0.00,,---,0.00,VWS V14.01,2013-07-18 23:45:00,
2013-07-18 18:46:00,68.5,43.3,25.10,SE,143,5.8,5.8,40,0.00,,---,0.00,VWS V14.01,2013-07-18 23:46:00,
2013-07-18 18:47:00,68.5,43.3,25.10,SSE,160,7.6,7.6,40,0.00,,---,0.00,VWS V14.01,2013-07-18 23:47:00,
2013-07-18 18:49:00,68.7,44.1,25.10,SE,135,5.4,6.3,41,0.00,,---,0.00,VWS V14.01,2013-07-18 23:49:00,
2013-07-18 18:50:00,68.7,44.1,25.10,SE,135,5.4,5.4,41,0.00,,---,0.00,VWS V14.01,2013-07-18 23:50:00,
2013-07-18 18:51:00,68.7,44.1,25.10,SE,135,5.4,5.4,41,0.00,,---,0.00,VWS V14.01,2013-07-18 23:51:00,
2013-07-18 18:52:00,68.7,44.1,25.10,SSE,149,4.0,4.0,41,0.00,,---,0.00,VWS V14.01,2013-07-18 23:52:00,
2013-07-18 18:54:00,68.7,44.1,25.10,South,171,5.8,5.8,41,0.00,,---,0.00,VWS V14.01,2013-07-18 23:54:00,
2013-07-18 18:55:00,68.7,44.1,25.10,South,171,5.8,5.8,41,0.00,,---,0.00,VWS V14.01,2013-07-18 23:55:00,
2013-07-18 18:56:00,68.7,44.1,25.10,South,171,5.8,5.8,41,0.00,,---,0.00,VWS V14.01,2013-07-18 23:56:00,
2013-07-18 18:58:00,68.7,44.1,25.10,SSE,167,3.6,3.6,41,0.00,,---,0.00,VWS V14.01,2013-07-18 23:58:00,
2013-07-18 18:59:00,68.7,44.1,25.10,SE,126,6.7,6.7,41,0.00,,---,0.00,VWS V14.01,2013-07-18 23:59:00,
2013-07-18 19:00:00,68.7,44.1,25.10,SE,126,6.7,6.7,41,0.00,,---,0.00,VWS V14.01,2013-07-19 00:00:00,
2013-07-18 19:01:00,68.7,44.1,25.10,ESE,122,6.3,6.7,41,0.00,,---,0.00,VWS V14.01,2013-07-19 00:01:00,
2013-07-18 19:03:00,68.7,44.1,25.10,SE,146,4.5,4.5,41,0.00,,---,0.00,VWS V14.01,2013-07-19 00:03:00,
2013-07-18 19:05:00,68.7,44.1,25.10,SE,141,5.4,5.4,41,0.00,,---,0.00,VWS V14.01,2013-07-19 00:05:00,
2013-07-18 19:06:00,68.7,44.1,25.10,SE,134,6.3,6.3,41,0.00,,---,0.00,VWS V14.01,2013-07-19 00:06:00,
2013-07-18 19:08:00,68.7,44.1,25.10,SE,131,5.4,5.4,41,0.00,,---,0.00,VWS V14.01,2013-07-19 00:08:00,
2013-07-18 19:10:00,68.7,44.1,25.10,SE,131,5.4,5.4,41,0.00,,---,0.00,VWS V14.01,2013-07-19 00:10:00,
2013-07-18 19:11:00,68.7,44.1,25.10,SE,131,5.4,5.4,41,0.00,,---,0.00,VWS V14.01,2013-07-19 00:11:00,
2013-07-18 19:14:00,68.7,44.1,25.10,SSE,151,6.3,6.3,41,0.00,,---,0.00,VWS V14.01,2013-07-19 00:14:00,
2013-07-18 19:15:00,68.7,44.1,25.10,ESE,106,7.6,7.6,41,0.00,,---,0.00,VWS V14.01,2013-07-19 00:15:00,
2013-07-18 19:16:00,68.7,44.1,25.10,SSE,152,5.8,7.6,41,0.00,,---,0.00,VWS V14.01,2013-07-19 00:16:00,
2013-07-18 19:19:00,68.5,43.9,25.10,SE,146,6.3,6.3,41,0.00,,---,0.00,VWS V14.01,2013-07-19 00:19:00,
2013-07-18 19:20:00,68.5,43.9,25.10,SSE,147,8.3,8.3,41,0.00,,---,0.00,VWS V14.01,2013-07-19 00:20:00,
2013-07-18 19:21:00,68.5,43.9,25.10,SSE,148,6.3,6.3,41,0.00,,---,0.00,VWS V14.01,2013-07-19 00:21:00,
2013-07-18 19:24:00,68.2,43.6,25.10,SSE,151,5.8,5.8,41,0.00,,---,0.00,VWS V14.01,2013-07-19 00:24:00,
2013-07-18 19:25:00,68.2,44.2,25.10,SSE,151,5.8,5.8,42,0.00,,---,0.00,VWS V14.01,2013-07-19 00:25:00,
2013-07-18 19:26:00,68.2,44.2,25.10,SSE,151,5.8,5.8,42,0.00,,---,0.00,VWS V14.01,2013-07-19 00:26:00,
2013-07-18 19:27:00,68.2,43.6,25.10,SSE,158,5.8,5.8,41,0.00,,---,0.00,VWS V14.01,2013-07-19 00:27:00,
2013-07-18 19:30:00,68.0,44.1,25.10,SE,136,6.3,6.3,42,0.00,,---,0.00,VWS V14.01,2013-07-19 00:30:00,
2013-07-18 19:31:00,68.0,44.1,25.10,SE,136,6.3,6.3,42,0.00,,---,0.00,VWS V14.01,2013-07-19 00:31:00,
2013-07-18 19:33:00,68.0,44.1,25.10,SE,131,5.4,5.4,42,0.00,,---,0.00,VWS V14.01,2013-07-19 00:33:00,
2013-07-18 19:35:00,67.8,45.1,25.10,South,177,5.8,5.8,44,0.00,,---,0.00,VWS V14.01,2013-07-19 00:35:00,
2013-07-18 19:36:00,67.8,45.1,25.10,South,177,5.8,5.8,44,0.00,,---,0.00,VWS V14.01,2013-07-19 00:36:00,
2013-07-18 19:38:00,67.5,45.4,25.10,South,177,5.8,5.8,45,0.00,,---,0.00,VWS V14.01,2013-07-19 00:38:00,
2013-07-18 19:41:00,67.5,45.4,25.10,SSE,150,5.8,6.3,45,0.00,,---,0.00,VWS V14.01,2013-07-19 00:41:00,
2013-07-18 19:42:00,67.5,45.4,25.10,SSE,150,5.8,5.8,45,0.00,,---,0.00,VWS V14.01,2013-07-19 00:42:00,
2013-07-18 19:43:00,67.5,46.0,25.10,SE,139,5.4,5.4,46,0.00,,---,0.00,VWS V14.01,2013-07-19 00:43:00,
2013-07-18 19:46:00,67.5,46.0,25.10,SE,139,5.4,5.4,46,0.00,,---,0.00,VWS V14.01,2013-07-19 00:46:00,
2013-07-18 19:47:00,67.5,46.0,25.10,East,100,8.3,8.3,46,0.00,,---,0.00,VWS V14.01,2013-07-19 00:47:00,
2013-07-18 19:48:00,67.5,46.0,25.10,SSE,148,8.1,8.1,46,0.00,,---,0.00,VWS V14.01,2013-07-19 00:48:00,
2013-07-18 19:51:00,67.5,46.0,25.10,SSE,166,8.7,8.7,46,0.00,,---,0.00,VWS V14.01,2013-07-19 00:51:00,
2013-07-18 19:52:00,66.6,47.9,25.10,SSE,166,8.7,8.7,51,0.00,,---,0.00,VWS V14.01,2013-07-19 00:52:00,
2013-07-18 19:54:00,66.4,48.2,25.10,SSE,149,4.0,8.7,52,0.00,,---,0.00,VWS V14.01,2013-07-19 00:54:00,
2013-07-18 19:56:00,66.4,48.2,25.10,SE,137,3.1,3.1,52,0.00,,---,0.00,VWS V14.01,2013-07-19 00:56:00,
2013-07-18 19:58:00,66.4,48.2,25.10,SE,137,3.1,3.1,52,0.00,,---,0.00,VWS V14.01,2013-07-19 00:58:00,
2013-07-18 19:59:00,66.4,48.2,25.10,SE,137,3.1,3.1,52,0.00,,---,0.00,VWS V14.01,2013-07-19 00:59:00,
2013-07-18 20:01:00,66.6,48.4,25.10,ESE,122,5.4,5.8,52,0.00,,---,0.00,VWS V14.01,2013-07-19 01:01:00,
2013-07-18 20:02:00,66.6,48.4,25.10,ESE,122,5.4,5.8,52,0.00,,---,0.00,VWS V14.01,2013-07-19 01:02:00,
2013-07-18 20:03:00,66.6,48.4,25.10,ESE,122,5.4,5.4,52,0.00,,---,0.00,VWS V14.01,2013-07-19 01:03:00,
2013-07-18 20:04:00,66.6,48.4,25.10,ESE,122,5.4,5.4,52,0.00,,---,0.00,VWS V14.01,2013-07-19 01:04:00,
2013-07-18 20:07:00,66.6,48.4,25.10,SSE,149,4.9,5.4,52,0.00,,---,0.00,VWS V14.01,2013-07-19 01:07:00,
2013-07-18 20:08:00,66.6,47.9,25.10,SSE,149,4.9,4.9,51,0.00,,---,0.00,VWS V14.01,2013-07-19 01:08:00,
2013-07-18 20:09:00,66.6,48.4,25.10,ESE,115,8.1,8.1,52,0.00,,---,0.00,VWS V14.01,2013-07-19 01:09:00,
2013-07-18 20:10:00,66.6,48.4,25.10,ESE,115,8.1,8.1,52,0.00,,---,0.00,VWS V14.01,2013-07-19 01:10:00,
2013-07-18 20:12:00,66.6,48.4,25.10,ESE,115,8.1,8.1,52,0.00,,---,0.00,VWS V14.01,2013-07-19 01:12:00,
2013-07-18 20:13:00,66.6,48.4,25.10,ESE,115,8.1,8.1,52,0.00,,---,0.00,VWS V14.01,2013-07-19 01:13:00,
2013-07-18 20:14:00,66.6,48.4,25.10,ESE,115,8.1,8.1,52,0.00,,---,0.00,VWS V14.01,2013-07-19 01:14:00,
2013-07-18 20:15:00,66.4,50.2,25.10,SE,145,6.3,8.1,56,0.00,,---,0.00,VWS V14.01,2013-07-19 01:15:00,
2013-07-18 20:18:00,65.8,49.7,25.10,SE,145,6.3,6.3,56,0.00,,---,0.00,VWS V14.01,2013-07-19 01:18:00,
2013-07-18 20:19:00,65.7,50.5,25.10,SE,145,6.3,6.3,58,0.00,,---,0.00,VWS V14.01,2013-07-19 01:19:00,
2013-07-18 20:20:00,65.5,50.8,25.10,SE,145,6.3,6.3,59,0.00,,---,0.00,VWS V14.01,2013-07-19 01:20:00,
2013-07-18 20:24:00,65.3,52.4,25.10,SSE,151,6.7,6.7,63,0.00,,---,0.00,VWS V14.01,2013-07-19 01:24:00,
2013-07-18 20:25:00,65.3,52.4,25.10,SSE,151,6.7,6.7,63,0.00,,---,0.00,VWS V14.01,2013-07-19 01:25:00,
2013-07-18 20:26:00,65.1,52.2,25.10,SSE,151,6.7,6.7,63,0.00,,---,0.00,VWS V14.01,2013-07-19 01:26:00,
2013-07-18 20:29:00,65.3,52.8,25.10,SE,137,2.7,6.7,64,0.00,,---,0.00,VWS V14.01,2013-07-19 01:29:00,
2013-07-18 20:30:00,65.3,52.8,25.10,SE,137,2.7,6.7,64,0.00,,---,0.00,VWS V14.01,2013-07-19 01:30:00,
2013-07-18 20:31:00,65.3,52.8,25.10,SSE,161,3.1,3.1,64,0.00,,---,0.00,VWS V14.01,2013-07-19 01:31:00,
2013-07-18 20:34:00,65.1,52.7,25.10,South,170,3.6,3.6,64,0.00,,---,0.00,VWS V14.01,2013-07-19 01:34:00,
2013-07-18 20:35:00,65.1,52.7,25.10,SE,146,3.1,3.6,64,0.00,,---,0.00,VWS V14.01,2013-07-19 01:35:00,
2013-07-18 20:36:00,65.1,52.7,25.10,SE,146,3.1,3.1,64,0.00,,---,0.00,VWS V14.01,2013-07-19 01:36:00,
2013-07-18 20:40:00,65.1,52.2,25.10,South,170,3.6,3.6,63,0.00,,---,0.00,VWS V14.01,2013-07-19 01:40:00,
2013-07-18 20:41:00,65.1,52.2,25.10,South,170,3.6,3.6,63,0.00,,---,0.00,VWS V14.01,2013-07-19 01:41:00,
2013-07-18 20:42:00,65.1,52.2,25.10,SSE,163,3.6,3.6,63,0.00,,---,0.00,VWS V14.01,2013-07-19 01:42:00,
2013-07-18 20:46:00,65.3,52.0,25.10,SSE,154,3.1,3.1,62,0.00,,---,0.00,VWS V14.01,2013-07-19 01:46:00,
2013-07-18 20:47:00,65.1,50.9,25.10,SSE,154,3.1,3.1,60,0.00,,---,0.00,VWS V14.01,2013-07-19 01:47:00,
2013-07-18 20:51:00,65.5,51.2,25.10,SSE,157,4.0,4.0,60,0.00,,---,0.00,VWS V14.01,2013-07-19 01:51:00,
2013-07-18 20:52:00,65.5,51.2,25.10,SSE,157,4.0,4.0,60,0.00,,---,0.00,VWS V14.01,2013-07-19 01:52:00,
2013-07-18 20:56:00,65.7,50.5,25.10,South,175,5.4,5.4,58,0.00,,---,0.00,VWS V14.01,2013-07-19 01:56:00,
2013-07-18 20:57:00,65.7,50.5,25.10,South,185,5.8,5.8,58,0.00,,---,0.00,VWS V14.01,2013-07-19 01:57:00,
2013-07-18 20:58:00,65.7,50.5,25.10,South,185,5.8,5.8,58,0.00,,---,0.00,VWS V14.01,2013-07-19 01:58:00,
2013-07-18 21:01:00,65.7,50.5,25.10,South,178,2.7,2.7,58,0.00,,---,0.00,VWS V14.01,2013-07-19 02:01:00,
2013-07-18 21:02:00,65.7,50.5,25.10,South,178,2.7,2.7,58,0.00,,---,0.00,VWS V14.01,2013-07-19 02:02:00,
2013-07-18 21:03:00,65.7,50.5,25.10,South,178,2.7,2.7,58,0.00,,---,0.00,VWS V14.01,2013-07-19 02:03:00,
2013-07-18 21:04:00,65.7,50.5,25.10,SSE,157,4.0,4.0,58,0.00,,---,0.00,VWS V14.01,2013-07-19 02:04:00,
2013-07-18 21:07:00,65.7,50.5,25.10,South,178,5.4,5.4,58,0.00,,---,0.00,VWS V14.01,2013-07-19 02:07:00,
2013-07-18 21:08:00,65.7,50.5,25.10,South,178,4.9,4.9,58,0.00,,---,0.00,VWS V14.01,2013-07-19 02:08:00,
2013-07-18 21:09:00,65.7,49.1,25.10,South,178,4.9,4.9,55,0.00,,---,0.00,VWS V14.01,2013-07-19 02:09:00,
2013-07-18 21:12:00,65.7,49.6,25.10,SSE,157,5.4,5.4,56,0.00,,---,0.00,VWS V14.01,2013-07-19 02:12:00,
2013-07-18 21:13:00,65.7,49.6,25.10,SSW,199,7.6,7.6,56,0.00,,---,0.00,VWS V14.01,2013-07-19 02:13:00,
2013-07-18 21:15:00,65.7,49.6,25.10,South,179,7.6,7.6,56,0.00,,---,0.00,VWS V14.01,2013-07-19 02:15:00,
2013-07-18 21:17:00,65.7,49.6,25.10,South,179,7.6,7.6,56,0.00,,---,0.00,VWS V14.01,2013-07-19 02:17:00,
2013-07-18 21:18:00,65.8,48.8,25.10,South,185,6.3,7.6,54,0.00,,---,0.00,VWS V14.01,2013-07-19 02:18:00,
2013-07-18 21:21:00,65.8,48.8,25.10,SSE,153,6.3,6.3,54,0.00,,---,0.00,VWS V14.01,2013-07-19 02:21:00,
2013-07-18 21:22:00,65.8,48.8,25.10,SSE,160,6.3,6.3,54,0.00,,---,0.00,VWS V14.01,2013-07-19 02:22:00,
2013-07-18 21:23:00,65.8,48.8,25.10,SSE,160,6.3,6.3,54,0.00,,---,0.00,VWS V14.01,2013-07-19 02:23:00,
2013-07-18 21:25:00,65.8,48.8,25.10,SE,144,4.9,5.4,54,0.00,,---,0.00,VWS V14.01,2013-07-19 02:25:00,
2013-07-18 21:26:00,65.8,48.8,25.10,SE,144,4.9,4.9,54,0.00,,---,0.00,VWS V14.01,2013-07-19 02:26:00,
2013-07-18 21:27:00,65.8,48.8,25.10,SE,144,4.9,4.9,54,0.00,,---,0.00,VWS V14.01,2013-07-19 02:27:00,
2013-07-18 21:30:00,65.7,48.6,25.10,SE,144,4.9,4.9,54,0.00,,---,0.00,VWS V14.01,2013-07-19 02:30:00,
2013-07-18 21:31:00,65.7,48.6,25.10,SE,144,4.9,4.9,54,0.00,,---,0.00,VWS V14.01,2013-07-19 02:31:00,
2013-07-18 21:32:00,65.7,48.6,25.10,SE,144,4.9,4.9,54,0.00,,---,0.00,VWS V14.01,2013-07-19 02:32:00,
2013-07-18 21:34:00,65.7,48.6,25.10,SSE,158,6.3,6.3,54,0.00,,---,0.00,VWS V14.01,2013-07-19 02:34:00,
2013-07-18 21:35:00,65.7,48.6,25.10,SSW,193,6.3,6.3,54,0.00,,---,0.00,VWS V14.01,2013-07-19 02:35:00,
2013-07-18 21:37:00,65.7,48.6,25.10,SSW,193,6.3,6.3,54,0.00,,---,0.00,VWS V14.01,2013-07-19 02:37:00,
2013-07-18 21:38:00,65.7,48.6,25.10,SSE,168,5.8,5.8,54,0.00,,---,0.00,VWS V14.01,2013-07-19 02:38:00,
2013-07-18 21:39:00,65.7,48.6,25.10,South,173,4.0,5.8,54,0.00,,---,0.00,VWS V14.01,2013-07-19 02:39:00,
2013-07-18 21:40:00,65.7,48.6,25.10,South,173,4.0,4.0,54,0.00,,---,0.00,VWS V14.01,2013-07-19 02:40:00,
2013-07-18 21:42:00,65.7,48.6,25.10,SSE,156,5.4,5.4,54,0.00,,---,0.00,VWS V14.01,2013-07-19 02:42:00,
2013-07-18 21:43:00,65.7,48.6,25.10,SSE,156,5.4,5.4,54,0.00,,---,0.00,VWS V14.01,2013-07-19 02:43:00,
2013-07-18 21:45:00,65.7,49.1,25.10,SE,140,3.6,3.6,55,0.00,,---,0.00,VWS V14.01,2013-07-19 02:45:00,
2013-07-18 21:46:00,65.7,49.1,25.10,SSE,153,4.5,4.5,55,0.00,,---,0.00,VWS V14.01,2013-07-19 02:46:00,
2013-07-18 21:48:00,65.7,49.1,25.10,SSE,156,3.1,4.0,55,0.00,,---,0.00,VWS V14.01,2013-07-19 02:48:00,
2013-07-18 21:51:00,65.7,49.1,25.10,South,178,3.6,3.6,55,0.00,,---,0.00,VWS V14.01,2013-07-19 02:51:00,
2013-07-18 21:52:00,65.7,49.1,25.10,South,178,3.6,3.6,55,0.00,,---,0.00,VWS V14.01,2013-07-19 02:52:00,
2013-07-18 21:53:00,65.7,49.1,25.10,SE,145,3.6,3.6,55,0.00,,---,0.00,VWS V14.01,2013-07-19 02:53:00,
2013-07-18 21:54:00,65.7,49.1,25.10,SE,145,3.6,3.6,55,0.00,,---,0.00,VWS V14.01,2013-07-19 02:54:00,
2013-07-18 21:56:00,65.7,49.1,25.10,SSE,154,2.7,2.7,55,0.00,,---,0.00,VWS V14.01,2013-07-19 02:56:00,
2013-07-18 21:59:00,65.3,50.2,25.10,SSE,163,2.2,2.2,58,0.00,,---,0.00,VWS V14.01,2013-07-19 02:59:00,
2013-07-18 22:01:00,65.1,50.0,25.10,SSE,163,4.0,4.0,58,0.00,,---,0.00,VWS V14.01,2013-07-19 03:01:00,
2013-07-18 22:02:00,65.1,50.0,25.10,SSE,163,4.0,4.0,58,0.00,,---,0.00,VWS V14.01,2013-07-19 03:02:00,
2013-07-18 22:04:00,65.1,50.0,25.10,SSW,193,3.6,3.6,58,0.00,,---,0.00,VWS V14.01,2013-07-19 03:04:00,
2013-07-18 22:06:00,65.1,49.5,25.10,South,175,3.1,3.1,57,0.00,,---,0.00,VWS V14.01,2013-07-19 03:06:00,
2013-07-18 22:07:00,65.1,49.5,25.10,SE,134,3.1,4.9,57,0.00,,---,0.00,VWS V14.01,2013-07-19 03:07:00,
2013-07-18 22:08:00,65.1,49.5,25.10,SE,134,3.1,4.9,57,0.00,,---,0.00,VWS V14.01,2013-07-19 03:08:00,
2013-07-18 22:09:00,65.1,49.5,25.10,SE,134,3.1,3.1,57,0.00,,---,0.00,VWS V14.01,2013-07-19 03:09:00,
2013-07-18 22:12:00,65.1,49.5,25.10,SSE,156,2.7,3.1,57,0.00,,---,0.00,VWS V14.01,2013-07-19 03:12:00,
2013-07-18 22:13:00,65.1,49.5,25.10,SSE,156,3.1,3.1,57,0.00,,---,0.00,VWS V14.01,2013-07-19 03:13:00,
2013-07-18 22:14:00,65.1,49.5,25.10,SSE,156,3.1,3.1,57,0.00,,---,0.00,VWS V14.01,2013-07-19 03:14:00,
2013-07-18 22:15:00,65.1,49.5,25.10,SSE,159,4.0,4.0,57,0.00,,---,0.00,VWS V14.01,2013-07-19 03:15:00,
2013-07-18 22:17:00,65.1,49.5,25.10,SSE,150,4.0,4.0,57,0.00,,---,0.00,VWS V14.01,2013-07-19 03:17:00,
2013-07-18 22:18:00,65.1,49.5,25.10,SSE,150,4.0,4.0,57,0.00,,---,0.00,VWS V14.01,2013-07-19 03:18:00,
2013-07-18 22:19:00,65.1,49.5,25.10,SSE,165,2.7,2.7,57,0.00,,---,0.00,VWS V14.01,2013-07-19 03:19:00,
2013-07-18 22:20:00,65.1,49.5,25.10,SSE,165,2.7,2.7,57,0.00,,---,0.00,VWS V14.01,2013-07-19 03:20:00,
2013-07-18 22:22:00,64.8,50.1,25.10,SSE,147,3.6,3.6,59,0.00,,---,0.00,VWS V14.01,2013-07-19 03:22:00,
2013-07-18 22:23:00,64.8,50.1,25.10,South,169,2.7,2.7,59,0.00,,---,0.00,VWS V14.01,2013-07-19 03:23:00,
2013-07-18 22:24:00,64.8,50.1,25.10,South,169,2.7,2.7,59,0.00,,---,0.00,VWS V14.01,2013-07-19 03:24:00,
2013-07-18 22:25:00,64.8,50.1,25.10,South,169,2.7,2.7,59,0.00,,---,0.00,VWS V14.01,2013-07-19 03:25:00,
2013-07-18 22:26:00,64.8,50.1,25.10,South,169,2.7,2.7,59,0.00,,---,0.00,VWS V14.01,2013-07-19 03:26:00,
2013-07-18 22:27:00,64.6,50.8,25.10,SSE,153,2.7,4.0,61,0.00,,---,0.00,VWS V14.01,2013-07-19 03:27:00,
2013-07-18 22:29:00,64.6,50.8,25.10,SSE,148,3.1,3.1,61,0.00,,---,0.00,VWS V14.01,2013-07-19 03:29:00,
2013-07-18 22:30:00,64.6,50.8,25.10,SSE,148,3.1,3.1,61,0.00,,---,0.00,VWS V14.01,2013-07-19 03:30:00,
2013-07-18 22:31:00,64.6,50.8,25.10,South,171,5.4,5.4,61,0.00,,---,0.00,VWS V14.01,2013-07-19 03:31:00,
2013-07-18 22:33:00,64.6,50.8,25.10,South,171,5.4,5.4,61,0.00,,---,0.00,VWS V14.01,2013-07-19 03:33:00,
2013-07-18 22:34:00,64.6,50.8,25.10,SSE,168,3.6,5.4,61,0.00,,---,0.00,VWS V14.01,2013-07-19 03:34:00,
2013-07-18 22:35:00,64.4,50.7,25.10,South,171,4.0,4.0,61,0.00,,---,0.00,VWS V14.01,2013-07-19 03:35:00,
2013-07-18 22:36:00,64.4,50.7,25.10,South,171,4.0,4.0,61,0.00,,---,0.00,VWS V14.01,2013-07-19 03:36:00,
2013-07-18 22:38:00,64.4,50.7,25.10,SSE,151,3.6,3.6,61,0.00,,---,0.00,VWS V14.01,2013-07-19 03:38:00,
2013-07-18 22:39:00,64.4,50.7,25.13,SSE,151,4.0,4.0,61,0.00,,---,0.00,VWS V14.01,2013-07-19 03:39:00,
2013-07-18 22:40:00,64.4,50.7,25.13,South,177,3.6,4.0,61,0.00,,---,0.00,VWS V14.01,2013-07-19 03:40:00,
2013-07-18 22:41:00,64.4,50.7,25.13,South,177,3.6,3.6,61,0.00,,---,0.00,VWS V14.01,2013-07-19 03:41:00,
2013-07-18 22:44:00,64.2,50.9,25.13,SSE,153,2.7,2.7,62,0.00,,---,0.00,VWS V14.01,2013-07-19 03:44:00,
2013-07-18 22:45:00,64.2,51.4,25.13,SSE,153,2.7,2.7,63,0.00,,---,0.00,VWS V14.01,2013-07-19 03:45:00,
2013-07-18 22:46:00,64.2,51.4,25.13,SSE,153,2.7,2.7,63,0.00,,---,0.00,VWS V14.01,2013-07-19 03:46:00,
2013-07-18 22:47:00,64.2,51.4,25.13,SSE,153,2.7,2.7,63,0.00,,---,0.00,VWS V14.01,2013-07-19 03:47:00,
2013-07-18 22:49:00,64.2,51.4,25.13,SE,142,4.9,4.9,63,0.00,,---,0.00,VWS V14.01,2013-07-19 03:49:00,
2013-07-18 22:50:00,64.2,51.4,25.13,SE,142,4.9,4.9,63,0.00,,---,0.00,VWS V14.01,2013-07-19 03:50:00,
2013-07-18 22:51:00,64.2,51.4,25.13,SE,141,2.7,2.7,63,0.00,,---,0.00,VWS V14.01,2013-07-19 03:51:00,
2013-07-18 22:52:00,64.2,51.4,25.13,SE,141,2.7,2.7,63,0.00,,---,0.00,VWS V14.01,2013-07-19 03:52:00,
2013-07-18 22:55:00,64.2,51.4,25.13,SE,142,0.0,0.0,63,0.00,,---,0.00,VWS V14.01,2013-07-19 03:55:00,
2013-07-18 22:56:00,64.2,51.4,25.13,SE,142,0.0,0.0,63,0.00,,---,0.00,VWS V14.01,2013-07-19 03:56:00,
2013-07-18 22:57:00,64.2,51.4,25.13,SE,142,0.0,0.0,63,0.00,,---,0.00,VWS V14.01,2013-07-19 03:57:00,
2013-07-18 23:00:00,64.2,51.4,25.13,SE,142,0.0,0.0,63,0.00,,---,0.00,VWS V14.01,2013-07-19 04:00:00,
2013-07-18 23:01:00,64.2,51.4,25.13,SE,142,0.0,0.0,63,0.00,,---,0.00,VWS V14.01,2013-07-19 04:01:00,
2013-07-18 23:02:00,63.9,51.5,25.13,SE,142,0.0,0.0,64,0.00,,---,0.00,VWS V14.01,2013-07-19 04:02:00,
2013-07-18 23:06:00,63.7,51.3,25.13,SE,142,0.0,0.0,64,0.00,,---,0.00,VWS V14.01,2013-07-19 04:06:00,
2013-07-18 23:07:00,63.5,51.5,25.13,SE,142,0.0,0.0,65,0.00,,---,0.00,VWS V14.01,2013-07-19 04:07:00,
2013-07-18 23:11:00,63.5,51.5,25.13,SE,140,3.6,3.6,65,0.00,,---,0.00,VWS V14.01,2013-07-19 04:11:00,
2013-07-18 23:12:00,63.5,51.5,25.13,SE,140,3.6,3.6,65,0.00,,---,0.00,VWS V14.01,2013-07-19 04:12:00,
2013-07-18 23:16:00,63.5,52.0,25.13,SE,139,0.0,0.0,66,0.00,,---,0.00,VWS V14.01,2013-07-19 04:16:00,
2013-07-18 23:17:00,63.5,52.0,25.13,South,173,4.0,4.9,66,0.00,,---,0.00,VWS V14.01,2013-07-19 04:17:00,
2013-07-18 23:18:00,63.5,52.0,25.13,South,173,4.0,4.0,66,0.00,,---,0.00,VWS V14.01,2013-07-19 04:18:00,
2013-07-18 23:22:00,63.5,51.5,25.13,SSE,166,2.7,2.7,65,0.00,,---,0.00,VWS V14.01,2013-07-19 04:22:00,
2013-07-18 23:23:00,63.5,51.5,25.13,SSE,166,2.7,2.7,65,0.00,,---,0.00,VWS V14.01,2013-07-19 04:23:00,
2013-07-18 23:27:00,63.5,51.5,25.13,SE,146,0.0,0.0,65,0.00,,---,0.00,VWS V14.01,2013-07-19 04:27:00,
2013-07-18 23:28:00,63.5,51.5,25.13,SE,146,0.0,0.0,65,0.00,,---,0.00,VWS V14.01,2013-07-19 04:28:00,
2013-07-18 23:32:00,63.1,51.2,25.13,SE,126,3.6,3.6,65,0.00,,---,0.00,VWS V14.01,2013-07-19 04:32:00,
2013-07-18 23:33:00,63.1,51.2,25.13,SE,126,3.6,3.6,65,0.00,,---,0.00,VWS V14.01,2013-07-19 04:33:00,
2013-07-18 23:34:00,63.1,51.2,25.13,SE,126,3.6,3.6,65,0.00,,---,0.00,VWS V14.01,2013-07-19 04:34:00,
2013-07-18 23:37:00,63.1,52.0,25.13,ESE,122,2.2,2.2,67,0.00,,---,0.00,VWS V14.01,2013-07-19 04:37:00,
2013-07-18 23:38:00,63.1,52.0,25.13,ESE,122,3.1,3.1,67,0.00,,---,0.00,VWS V14.01,2013-07-19 04:38:00,
2013-07-18 23:39:00,63.1,52.0,25.13,ESE,122,3.1,3.1,67,0.00,,---,0.00,VWS V14.01,2013-07-19 04:39:00,
2013-07-18 23:42:00,63.1,52.0,25.13,ESE,122,0.0,0.0,67,0.00,,---,0.00,VWS V14.01,2013-07-19 04:42:00,
2013-07-18 23:43:00,63.1,52.0,25.13,ESE,122,0.0,0.0,67,0.00,,---,0.00,VWS V14.01,2013-07-19 04:43:00,
2013-07-18 23:44:00,63.1,52.0,25.13,ESE,122,0.0,0.0,67,0.00,,---,0.00,VWS V14.01,2013-07-19 04:44:00,
2013-07-18 23:47:00,63.0,51.4,25.13,ESE,122,0.0,0.0,66,0.00,,---,0.00,VWS V14.01,2013-07-19 04:47:00,
2013-07-18 23:48:00,63.0,51.4,25.13,ESE,122,0.0,0.0,66,0.00,,---,0.00,VWS V14.01,2013-07-19 04:48:00,
2013-07-18 23:49:00,63.0,51.4,25.13,ESE,122,0.0,0.0,66,0.00,,---,0.00,VWS V14.01,2013-07-19 04:49:00,
2013-07-18 23:53:00,62.6,51.1,25.13,ESE,122,0.0,0.0,66,0.00,,---,0.00,VWS V14.01,2013-07-19 04:53:00,
2013-07-18 23:54:00,62.6,51.5,25.13,ESE,122,0.0,0.0,67,0.00,,---,0.00,VWS V14.01,2013-07-19 04:54:00,
2013-07-18 23:55:00,62.6,51.9,25.13,ESE,122,0.0,0.0,68,0.00,,---,0.00,VWS V14.01,2013-07-19 04:55:00,
2013-07-18 23:58:00,62.6,51.9,25.13,ESE,122,0.0,0.0,68,0.00,,---,0.00,VWS V14.01,2013-07-19 04:58:00,
2013-07-18 23:59:00,62.6,51.9,25.13,ESE,122,0.0,0.0,68,0.00,,---,0.00,VWS V14.01,2013-07-19 04:59:00,